GFSFLT1_sfc_thetae_018.txt.gz
Theta_e
323 326 328 330 333 335 334 332 332 329 325 326 325 322 321 321 320 319 317 317 316 317 316 315 314 313 312 312 311 311 310 309
325 327 329 331 332 333 332 330 330 329 326 323 321 321 321 319 317 316 315 314 314 314 313 313 313 312 312 311 310 309 307 308
323 327 329 330 330 331 331 329 328 326 325 325 325 323 319 316 316 314 313 312 312 311 312 312 312 310 310 310 308 305 305 306
322 325 328 329 328 329 328 326 324 324 323 322 320 320 317 316 315 314 312 312 311 311 311 311 310 309 307 308 307 304 302 303
323 322 322 325 325 323 322 322 321 318 316 317 317 316 315 313 312 312 313 312 312 311 310 310 309 308 307 307 305 303 300 298
316 317 319 319 319 319 318 316 315 316 317 317 315 313 311 312 312 310 311 311 311 309 309 308 308 308 307 305 303 301 301 299
313 314 314 314 315 316 316 314 314 314 314 313 312 310 308 308 307 306 305 305 305 306 307 308 308 307 305 303 301 301 300 298
311 310 311 312 313 314 313 312 311 311 310 309 308 308 307 303 302 301 300 300 300 301 303 305 306 306 304 302 300 301 297 296
311 312 312 312 312 312 312 310 308 308 307 306 305 302 300 301 301 300 300 299 300 302 303 305 305 304 300 300 301 299 298 296
312 312 312 311 311 311 310 307 305 304 302 301 301 301 301 301 301 301 300 300 299 301 304 304 304 303 302 300 300 298 298 297
312 310 310 311 311 310 308 305 302 300 300 301 301 301 301 301 301 299 299 299 299 300 301 302 301 302 302 299 299 298 296 296
311 310 310 310 309 306 303 302 299 298 301 301 301 301 301 300 300 299 298 299 299 298 299 300 300 299 298 299 298 297 295 294
311 308 308 308 306 303 302 301 299 301 300 299 299 300 300 299 299 298 299 298 298 298 298 298 298 297 298 297 297 295 293 292
308 307 305 305 303 301 300 300 300 300 299 298 299 299 298 298 298 298 298 297 297 298 298 297 297 297 297 296 294 293 293 292
306 305 304 303 301 299 298 300 302 301 299 298 297 298 298 298 298 297 297 297 297 297 297 297 297 295 294 293 293 292 292 291
305 305 303 301 299 298 300 303 303 300 298 298 298 298 298 298 298 297 297 297 296 296 296 296 296 294 293 292 292 291 291 290
305 305 304 301 300 298 302 302 300 299 297 297 298 297 297 297 297 296 296 295 295 295 295 295 295 293 286 286 286 290 289 288
304 305 304 302 299 302 301 300 299 297 296 296 296 296 295 295 295 295 295 294 295 294 295 295 293 292 286 284 283 288 287 286
306 306 303 303 301 301 301 298 296 296 295 294 295 294 294 294 295 294 294 294 293 293 293 292 292 289 284 282 282 287 286 285

GFSFLT1_sfc_thetae_021.txt.gz
Theta_e
326 327 327 327 331 336 336 334 332 332 330 328 328 328 327 326 324 322 321 320 319 320 319 318 317 315 315 315 314 313 312 310
327 329 330 330 334 335 332 331 331 329 329 328 327 322 323 322 320 319 318 317 316 316 316 316 316 314 314 313 312 310 306 307
325 328 330 331 332 334 332 331 331 331 330 327 325 325 322 319 318 318 316 316 315 314 315 314 314 311 311 310 309 306 305 306
324 327 329 331 330 330 329 330 330 328 328 325 324 322 319 317 317 316 315 315 315 314 313 312 311 309 306 307 307 306 301 303
325 326 328 329 330 332 330 328 326 325 323 320 319 318 316 316 315 315 315 315 313 312 311 310 309 308 307 306 305 304 302 299
324 326 326 327 326 325 325 323 319 319 320 320 318 316 315 314 314 311 310 309 308 307 306 307 308 308 307 307 305 304 302 301
320 321 321 321 321 321 319 317 317 318 318 317 315 312 310 308 306 304 303 303 303 304 303 304 305 306 306 306 305 303 302 301
316 315 315 316 317 317 317 316 314 315 313 311 310 309 305 304 302 301 301 301 301 302 303 303 303 304 305 304 303 302 302 298
314 314 314 315 316 316 315 314 312 311 310 307 305 303 302 302 302 302 301 300 300 301 302 303 304 304 304 303 301 302 301 299
313 314 315 315 315 315 315 313 310 308 306 306 303 302 303 303 302 303 301 301 300 300 301 301 302 303 303 303 302 301 299 298
314 314 315 315 315 315 315 311 307 306 305 304 301 303 303 304 303 301 300 300 300 300 299 300 300 301 302 302 300 300 298 298
314 314 314 314 315 313 310 307 306 305 303 302 304 302 302 303 302 301 300 300 299 299 299 298 298 298 299 298 298 298 297 297
315 314 313 313 312 310 307 307 307 303 303 301 302 302 302 301 301 301 300 299 299 298 298 298 298 298 297 297 297 297 296 294
315 314 312 312 311 308 306 306 305 303 301 301 301 301 301 301 300 300 299 299 298 298 297 297 297 297 296 296 294 294 294 293
315 314 312 311 311 308 306 305 306 303 302 301 300 301 301 301 300 299 299 298 297 297 297 297 297 296 295 295 294 294 293 293
313 312 311 310 309 307 305 305 306 303 301 300 300 301 301 300 299 299 299 298 297 297 296 296 296 296 294 294 293 293 292 291
312 311 310 309 307 305 303 305 304 304 301 299 300 300 299 299 298 298 297 297 296 296 295 295 295 295 287 286 286 290 290 289
311 310 310 309 307 305 303 305 304 301 300 299 299 298 298 297 296 295 295 296 296 295 294 294 294 293 287 285 283 288 289 289
310 311 310 310 309 305 305 303 301 299 298 297 297 297 295 295 294 295 295 296 295 294 294 293 293 290 285 283 283 287 289 288

GFSFLT1_sfc_thetae_024.txt.gz
Theta_e
323 323 323 326 332 333 332 333 330 330 328 326 327 327 327 325 323 321 321 318 318 317 317 314 313 313 312 311 309 309 307 303
324 327 328 327 332 333 333 329 329 329 327 325 325 323 322 322 318 319 317 316 315 313 314 314 313 310 310 308 305 304 303 303
324 326 329 331 332 333 331 330 329 329 328 327 325 322 321 318 317 316 315 315 313 313 312 311 310 307 306 305 303 301 301 301
323 325 328 331 330 331 330 329 329 330 328 325 321 318 316 314 314 313 313 314 313 312 311 309 307 305 303 303 302 301 297 298
323 325 326 328 328 328 330 329 329 326 326 322 318 315 312 314 313 313 313 313 311 309 307 307 306 306 304 303 302 300 298 294
322 324 326 326 329 329 329 327 323 322 320 320 317 314 314 313 311 308 307 306 305 304 303 303 302 302 303 303 302 300 298 295
323 326 326 325 326 324 323 318 317 319 318 317 314 310 308 305 303 302 302 301 301 302 302 301 301 301 301 302 301 300 299 297
321 321 320 319 319 318 317 315 315 315 314 311 309 306 305 302 300 301 300 299 299 299 299 299 300 301 301 301 299 298 297 296
318 318 317 316 316 316 315 314 313 311 310 307 305 304 302 302 303 300 299 298 298 299 299 299 299 301 300 300 298 297 297 296
315 315 315 314 315 315 315 313 311 309 306 305 304 303 302 302 302 301 300 299 298 298 298 298 298 298 299 297 298 298 298 296
313 313 314 315 315 315 316 314 309 306 306 305 303 302 304 303 302 300 298 298 298 298 298 297 297 297 297 297 297 296 295 294
313 313 314 315 315 314 314 311 306 305 305 304 302 303 303 302 301 300 298 298 298 297 297 296 296 296 296 295 294 294 294 293
313 314 314 314 313 313 311 308 305 306 304 302 302 303 302 301 300 299 299 297 298 296 296 296 296 296 295 294 293 293 292 291
314 314 313 312 312 312 309 306 306 305 303 302 301 302 301 301 299 299 299 297 297 296 296 295 295 295 295 294 293 292 291 290
314 313 313 312 312 310 308 306 307 304 303 302 299 301 301 300 299 299 298 298 296 295 295 295 295 294 294 294 292 290 290 290
313 314 312 312 311 311 308 306 306 305 303 300 300 301 300 299 300 299 298 297 296 296 295 294 294 294 292 291 290 289 288 288
312 314 314 312 311 310 308 305 305 306 302 300 301 301 299 299 299 297 297 296 295 295 294 294 293 292 288 287 286 285 287 286
310 312 313 313 311 310 306 304 306 304 300 300 300 299 298 297 296 295 294 294 295 294 294 293 292 288 287 286 284 284 284 284
310 311 312 312 312 308 306 304 304 301 299 298 298 298 296 295 294 293 294 294 293 293 292 292 291 288 287 285 284 281 284 284

GFSFLT1_sfc_thetae_027.txt.gz
Theta_e
315 316 322 325 326 326 328 326 324 323 321 321 321 320 320 319 317 316 314 313 312 312 310 308 309 307 306 305 303 303 303 299
316 315 318 325 326 327 327 324 324 323 320 319 318 318 317 313 312 312 311 310 310 308 308 308 306 305 303 302 301 299 298 299
318 319 320 326 326 326 326 326 325 324 322 323 321 317 314 310 310 309 310 309 309 309 307 305 304 302 301 300 299 297 298 296
318 319 319 326 326 325 325 325 325 325 324 325 316 312 309 308 307 307 308 309 309 307 306 304 302 301 299 299 298 297 294 294
319 320 319 325 325 326 325 326 325 326 325 314 311 309 307 307 307 307 307 308 304 301 301 299 298 299 299 299 300 297 295 292
318 319 323 325 327 326 326 324 325 323 320 316 310 307 306 306 304 301 298 299 300 300 299 297 296 297 296 297 297 297 295 293
318 322 323 323 325 322 320 315 313 312 310 310 308 306 300 298 296 296 297 299 297 299 298 297 297 296 296 297 297 295 294 294
318 320 319 318 314 315 312 310 309 307 305 302 301 299 297 296 296 296 298 295 294 294 295 295 295 296 297 297 295 295 294 293
315 314 313 312 311 309 308 309 307 305 304 299 298 298 297 297 297 296 297 296 295 294 295 294 295 295 295 295 295 295 294 293
312 312 311 310 309 309 307 307 305 304 300 299 298 297 298 298 297 297 297 296 296 295 295 294 294 294 294 293 293 295 294 293
310 310 310 310 309 309 307 306 304 300 300 299 298 297 299 298 298 298 295 295 295 294 293 293 293 293 293 293 292 292 291 291
308 308 310 310 310 309 308 304 300 299 300 299 298 297 299 299 298 297 296 296 294 294 293 293 293 293 293 292 291 291 292 291
308 308 309 309 309 308 307 301 300 300 299 299 298 298 301 300 299 298 296 294 294 293 293 294 294 293 292 292 291 290 289 289
307 307 308 309 308 308 306 301 301 300 298 297 297 300 300 299 298 297 296 294 293 293 293 293 293 293 292 292 292 290 289 289
308 307 309 309 309 308 305 302 302 300 298 297 299 299 299 299 297 296 295 295 293 292 292 293 293 293 293 293 291 289 289 289
307 307 307 308 307 306 305 303 301 300 298 298 299 299 300 298 297 296 296 295 294 294 294 293 293 292 291 289 288 287 286 285
304 308 308 308 307 306 305 302 301 301 301 300 300 299 298 297 296 295 295 293 293 293 292 292 291 291 288 288 286 284 285 284
304 306 308 307 307 307 303 302 303 302 302 301 298 297 296 294 293 292 291 291 292 292 292 291 290 288 288 287 285 283 283 282
303 304 306 307 306 304 303 303 303 300 297 296 294 293 293 293 292 291 291 292 291 290 290 291 290 288 288 287 284 281 282 282

GFSFLT1_sfc_thetae_030.txt.gz
Theta_e
324 326 327 326 325 326 326 324 321 320 318 319 319 318 318 317 316 316 312 311 312 309 307 306 306 304 302 301 300 299 299 297
320 326 326 323 324 323 324 322 321 320 318 316 316 316 315 315 313 311 309 308 309 307 306 304 304 302 300 300 298 297 297 296
315 321 322 322 322 324 323 323 321 320 319 318 319 316 312 310 308 308 307 307 307 306 305 303 302 301 299 298 297 295 296 294
312 316 320 321 321 323 323 323 322 320 320 320 315 310 308 306 305 305 306 307 307 305 304 302 301 300 299 298 298 296 293 293
316 316 320 321 323 324 324 324 323 322 320 318 314 311 307 305 304 304 305 306 301 300 299 297 297 296 295 296 299 295 293 291
315 319 322 323 323 323 323 323 323 323 322 315 311 307 306 306 304 302 298 297 298 299 297 296 296 295 295 295 295 295 293 291
315 321 324 323 323 323 323 322 321 319 321 312 310 305 303 301 296 294 295 296 297 296 296 295 294 294 295 295 294 294 293 293
316 319 321 322 322 322 322 316 308 308 309 306 305 301 300 297 296 295 295 297 296 295 295 295 294 294 294 295 294 293 292 291
317 318 319 319 319 316 313 309 303 302 302 300 299 298 297 297 296 298 297 296 295 295 295 294 293 293 292 292 292 293 293 291
313 312 313 310 308 308 309 307 304 301 300 300 300 299 298 298 297 297 297 296 296 296 294 292 295 293 292 291 291 292 292 292
311 311 310 310 308 307 306 305 304 301 300 299 299 299 299 298 298 297 297 296 296 295 294 294 292 292 291 291 291 291 290 290
311 311 311 310 309 307 306 303 300 300 299 297 298 298 298 299 299 297 297 296 296 295 293 294 292 292 291 290 290 290 290 290
311 311 310 309 308 307 306 303 300 299 299 298 297 298 300 299 298 297 296 295 295 293 293 292 292 292 292 290 290 290 290 288
308 308 308 308 308 308 306 303 300 300 300 298 297 298 299 298 298 296 295 293 293 292 292 292 292 292 292 292 291 290 288 288
306 307 308 309 309 308 305 301 301 301 299 297 297 299 299 296 297 294 294 293 294 292 292 292 293 291 292 292 290 288 288 288
304 304 305 306 306 305 302 301 302 300 298 297 298 299 298 297 294 293 294 293 293 293 292 292 292 292 291 290 289 287 285 284
303 305 305 306 306 305 304 301 301 300 299 298 299 299 298 296 295 293 291 292 292 292 291 291 290 291 290 290 287 284 285 284
304 305 305 305 305 305 303 302 300 299 299 300 298 296 294 293 293 292 291 291 292 291 290 290 290 290 289 289 287 283 282 281
300 301 305 304 304 303 300 301 300 299 296 295 294 293 292 292 292 292 292 291 290 289 289 290 289 289 288 288 286 281 281 282

GFSFLT1_sfc_thetae_033.txt.gz
Theta_e
321 321 322 324 325 325 324 322 320 319 317 318 318 317 316 316 316 316 313 313 311 307 306 305 303 301 300 299 297 298 296 296
322 323 323 325 323 322 323 320 318 318 317 316 314 314 314 314 313 310 309 310 308 305 304 303 302 300 299 299 297 296 295 294
321 322 324 324 323 322 322 321 318 318 318 316 317 315 312 311 309 307 307 307 306 305 303 301 300 299 297 297 296 295 295 293
318 321 322 322 321 322 322 321 320 318 318 317 312 308 307 305 304 303 305 306 305 304 302 300 299 299 296 296 296 295 293 293
316 320 321 320 319 322 323 322 320 319 318 317 313 311 308 304 303 303 304 304 301 299 297 296 296 295 294 295 296 294 292 291
312 316 320 321 320 321 322 321 322 321 319 318 314 309 305 304 303 302 296 297 297 298 297 297 296 295 294 294 294 294 293 290
312 314 318 319 320 321 321 321 321 321 319 316 313 307 304 303 299 295 295 295 296 295 296 295 297 296 294 295 293 293 293 292
313 317 318 319 320 320 321 321 320 319 319 313 309 306 304 303 299 295 296 295 294 295 296 296 296 295 295 295 293 293 291 290
315 318 320 319 320 320 321 319 311 310 311 307 304 303 304 305 303 299 297 296 296 296 296 296 295 295 294 290 290 291 292 291
315 319 320 319 320 319 318 310 306 304 303 301 299 301 301 301 301 298 297 297 296 296 295 295 295 294 291 291 290 290 291 291
312 315 315 316 314 310 309 306 303 301 300 301 300 301 300 299 298 297 296 296 297 296 295 295 294 292 291 290 290 291 290 289
312 314 313 312 309 308 306 303 300 299 300 299 298 297 298 297 297 297 296 297 296 296 295 294 292 291 291 291 290 289 289 288
312 312 310 308 308 307 305 304 301 301 300 299 299 297 297 298 297 297 297 296 295 295 293 292 291 291 291 290 289 289 288 287
308 308 308 308 307 307 306 304 302 300 300 299 297 297 298 298 297 296 295 293 293 292 291 291 291 292 291 290 289 289 287 287
306 306 308 309 308 306 305 303 300 301 301 299 298 298 299 298 298 296 295 294 293 292 292 292 292 291 290 290 290 288 287 287
303 304 305 306 306 305 303 301 302 303 299 298 299 299 299 298 297 295 295 294 294 293 293 293 293 292 290 290 288 287 285 284
304 304 305 306 305 304 302 301 302 300 299 299 299 299 296 296 294 293 292 292 293 293 292 292 291 290 290 290 288 285 284 283
301 303 302 303 303 304 301 300 299 298 299 299 296 294 292 292 293 292 292 292 292 291 290 290 289 290 290 290 289 283 282 281
294 293 298 301 300 299 298 298 297 295 293 292 293 292 292 293 293 292 292 292 291 290 289 289 288 288 289 289 288 282 281 281

GFSFLT1_sfc_thetae_036.txt.gz
Theta_e
317 317 318 319 321 324 323 322 319 318 317 317 317 317 317 318 317 317 316 314 310 307 306 304 302 300 299 298 297 297 296 296
316 318 318 320 322 322 321 319 317 318 316 315 313 313 314 313 314 311 312 310 307 306 304 302 301 299 298 298 296 295 295 293
316 318 318 320 322 322 320 320 317 318 319 314 315 313 312 311 309 307 309 307 305 304 302 300 299 298 297 296 296 294 294 293
316 318 319 320 322 321 322 320 318 318 317 315 310 309 307 306 304 303 304 305 304 302 301 299 298 297 295 295 295 294 292 292
317 319 319 320 321 321 322 320 318 317 317 316 312 312 307 305 303 302 303 303 300 299 297 296 295 295 294 295 295 294 293 291
314 317 320 321 320 318 320 320 319 320 318 317 314 311 309 307 302 301 297 296 296 296 296 295 294 294 295 297 297 296 293 291
312 315 318 319 316 317 319 319 320 320 318 316 314 309 305 304 301 296 295 294 294 295 294 294 294 294 296 296 294 293 292 292
307 309 314 315 316 317 319 320 320 319 318 315 312 309 308 307 302 297 295 294 293 294 295 295 296 296 296 295 293 294 292 291
308 311 313 316 317 318 319 320 321 319 318 316 313 314 309 307 302 298 297 295 296 297 296 297 297 296 294 293 292 290 291 291
309 312 314 316 317 318 319 320 321 318 318 314 310 309 307 305 301 300 297 296 296 295 298 297 296 295 294 293 292 291 291 291
309 313 316 317 317 318 318 320 317 313 310 308 306 305 306 304 301 298 296 295 296 298 297 295 295 294 293 292 291 291 290 289
310 313 316 317 317 316 315 312 307 302 302 301 300 301 303 303 301 298 297 296 297 297 295 295 294 293 292 290 290 290 289 289
309 310 311 311 312 310 310 306 303 301 302 301 301 301 301 300 298 296 296 296 297 295 295 293 293 292 291 290 290 290 289 288
307 308 308 309 308 307 307 304 301 300 301 302 302 298 298 296 295 296 296 295 294 293 294 293 293 292 291 291 289 289 288 288
306 306 306 306 307 307 304 302 300 300 300 299 296 298 298 297 296 295 295 295 293 292 293 293 292 292 292 291 290 288 288 287
304 305 305 306 306 305 304 302 300 301 299 297 296 298 297 295 295 295 294 294 293 293 293 293 293 293 291 290 289 288 286 285
302 302 303 305 305 304 302 300 299 300 298 297 297 296 295 295 295 293 292 293 293 294 293 292 292 292 290 290 289 286 285 284
295 297 299 300 301 302 299 298 298 297 297 297 295 294 293 292 292 293 293 293 293 292 292 291 291 290 290 290 290 285 284 283
290 291 292 293 295 295 296 296 294 292 291 292 293 294 294 294 293 292 292 292 292 291 291 290 289 289 288 289 288 285 283 282

GFSFLT1_sfc_thetae_042.txt.gz
Theta_e
324 327 326 326 327 327 326 328 331 333 334 331 327 326 328 333 336 335 333 331 328 328 326 325 324 321 319 317 316 314 314 312
325 328 330 329 329 328 328 329 331 332 332 329 325 323 327 332 334 335 332 331 329 328 326 324 322 319 318 317 314 312 310 311
321 325 327 328 328 330 330 329 330 332 333 332 327 328 328 330 333 334 333 332 328 326 324 321 320 318 316 314 313 310 310 311
321 321 325 327 327 328 329 330 332 333 333 332 328 331 331 330 330 329 330 329 326 325 323 321 319 317 314 314 311 308 308 309
323 323 323 325 327 329 329 331 333 334 334 332 328 325 324 327 328 327 326 326 325 322 320 319 318 316 313 311 309 310 306 303
322 324 325 326 327 328 330 331 333 333 333 333 330 329 328 330 328 325 324 323 321 320 319 318 316 313 312 309 309 307 304 303
323 325 327 328 329 330 330 330 330 333 333 332 331 331 330 326 324 321 320 319 318 316 315 315 314 311 310 309 310 307 302 304
323 323 325 328 329 330 331 330 328 330 329 327 328 329 330 324 324 321 317 316 313 312 312 311 310 308 308 309 304 305 302 305
322 324 325 327 329 332 332 329 327 329 329 323 327 327 326 325 326 322 318 312 312 310 309 309 307 307 306 304 302 301 304 303
318 322 325 326 329 331 333 332 329 331 329 325 325 326 324 323 324 322 316 312 309 308 308 305 306 305 304 301 301 300 303 304
316 318 321 324 327 330 333 333 332 332 330 327 325 326 325 324 323 320 313 311 309 307 307 306 305 303 301 297 297 302 302 303
317 319 322 324 325 328 329 330 330 331 331 330 325 325 325 324 323 320 316 313 308 305 304 305 303 300 299 299 301 300 301 299
319 321 323 324 325 326 327 328 328 330 331 331 328 325 322 320 317 316 313 309 304 306 306 304 300 302 300 299 299 299 300 299
318 321 323 325 326 327 327 328 328 328 327 325 324 320 316 314 312 310 307 305 306 305 304 300 300 301 299 299 299 298 299 300
317 320 322 323 324 325 326 325 324 320 320 319 318 317 317 317 314 311 308 306 304 300 300 300 299 298 298 298 298 298 297 299
316 319 321 322 322 322 322 320 319 319 317 316 315 314 313 311 309 309 307 308 303 299 298 297 299 298 298 299 298 295 297 298
313 316 318 318 318 318 316 316 315 315 313 311 310 308 306 305 303 302 298 297 297 297 298 297 297 298 293 292 292 294 297 296
309 310 311 312 314 315 313 312 312 311 309 307 305 304 301 300 298 297 296 298 296 297 297 299 298 298 292 292 291 295 295 296
305 307 308 309 310 310 310 309 308 306 305 303 303 302 300 300 299 299 297 298 297 298 298 298 300 298 291 291 289 294 295 295

GFSFLT1_sfc_thetae_045.txt.gz
Theta_e
321 322 320 320 323 322 321 325 326 330 332 329 326 324 327 327 328 330 334 334 333 332 331 330 329 326 325 323 321 318 315 314
323 322 323 322 324 325 326 326 327 330 329 326 323 321 323 325 329 332 334 334 332 331 330 329 328 326 324 323 319 315 313 312
323 325 325 326 326 326 326 326 327 331 331 330 326 325 323 326 329 333 334 334 333 331 331 328 327 324 323 321 318 314 313 312
320 323 325 326 325 326 327 328 329 330 331 331 329 326 326 324 327 329 332 333 333 331 330 328 326 324 320 319 317 315 310 312
319 321 325 326 328 330 330 330 330 330 332 331 328 323 323 327 329 330 331 333 332 330 328 327 324 322 321 319 316 314 313 310
320 320 321 326 329 329 331 331 330 332 333 332 331 327 327 329 330 330 331 331 330 327 326 325 323 321 320 318 315 313 312 308
321 323 323 323 326 330 333 329 329 331 332 332 332 330 329 330 331 328 327 327 327 326 324 323 323 320 318 315 313 312 308 308
320 321 323 325 325 328 330 329 327 331 333 331 332 332 332 326 328 327 325 324 323 323 322 320 317 315 315 313 310 308 306 302
320 321 323 325 327 328 330 328 328 329 331 330 331 332 331 329 326 325 323 322 321 322 318 313 312 312 310 308 307 304 303 304
320 322 323 325 327 331 334 331 330 330 332 327 329 331 329 329 327 327 323 321 320 317 312 309 309 307 308 308 304 300 305 304
318 320 323 326 328 333 338 335 333 331 330 332 330 329 328 328 327 325 322 321 316 311 309 308 308 308 308 305 303 302 301 304
318 320 321 324 327 329 332 334 334 332 332 331 331 328 328 327 325 324 322 318 313 311 310 307 305 306 304 302 300 300 302 301
319 321 323 324 325 327 330 332 333 333 332 330 330 328 328 324 323 321 320 317 316 312 308 304 306 304 301 299 300 300 300 299
318 322 323 325 326 327 329 330 330 331 332 331 328 325 322 320 318 316 313 313 310 306 305 306 302 301 300 299 299 299 299 299
316 320 323 325 327 327 328 329 331 330 330 328 326 320 318 317 314 312 309 307 306 307 305 301 301 300 299 299 298 297 298 299
314 319 322 324 326 327 327 326 325 325 324 323 320 319 319 317 316 313 311 308 305 302 301 301 299 298 298 297 298 299 299 298
316 320 322 323 323 324 322 321 321 321 319 316 316 314 312 311 310 308 307 306 303 301 297 298 298 299 295 293 294 299 296 296
316 318 320 321 320 320 318 317 317 315 313 311 309 308 306 304 303 302 301 301 301 300 299 299 299 301 293 292 291 295 295 295
313 314 315 316 317 316 315 314 312 311 309 307 307 305 303 303 303 302 302 301 301 300 300 301 300 297 292 292 291 295 296 296

GFSFLT1_sfc_thetae_048.txt.gz
Theta_e
319 318 317 317 317 317 315 314 314 319 321 314 318 322 324 325 324 325 330 331 332 330 329 327 325 323 322 321 318 316 313 310
319 318 319 318 315 316 315 313 316 321 321 319 321 319 322 323 324 325 331 330 331 329 328 327 324 323 321 321 317 313 308 307
318 316 318 318 317 317 319 320 320 323 323 324 324 322 321 323 324 327 331 330 330 329 327 325 324 323 321 318 315 310 310 308
317 317 318 319 320 320 321 322 322 324 327 327 326 324 321 319 322 328 330 331 330 329 328 326 324 323 319 317 315 312 307 306
319 320 320 320 322 324 325 324 324 324 328 327 326 321 318 319 321 326 329 330 329 329 329 327 324 322 318 316 315 312 309 305
319 320 323 323 325 325 325 325 325 327 327 328 325 324 321 324 322 326 327 328 329 328 327 325 323 321 320 317 315 313 308 306
318 320 323 324 326 327 326 326 326 328 328 327 326 324 324 323 325 325 326 326 327 326 326 323 322 320 319 317 313 310 305 305
318 318 318 322 324 325 327 327 326 327 329 328 327 327 328 326 325 324 322 322 321 322 323 321 319 318 314 312 309 307 304 302
318 319 320 319 322 326 327 327 326 327 328 329 328 328 328 327 326 325 322 321 322 320 320 318 315 312 310 308 306 305 302 301
318 319 322 322 322 323 326 326 326 326 328 329 327 325 327 327 326 325 323 322 321 319 318 311 310 308 306 305 303 300 300 301
317 319 321 322 324 325 326 326 326 327 328 330 328 323 324 328 328 325 324 322 320 316 311 309 307 306 306 303 301 300 301 301
317 318 321 322 324 325 327 328 328 328 330 330 328 327 326 327 325 323 324 320 314 310 309 308 306 305 304 302 300 299 299 298
318 320 321 321 322 326 330 331 331 330 329 329 329 328 327 323 322 321 319 313 311 309 309 307 305 304 303 300 297 297 300 298
316 320 321 322 324 324 327 331 331 329 331 329 328 326 323 321 318 315 315 313 312 308 306 304 304 302 300 298 299 299 298 298
313 318 321 323 325 326 327 328 330 329 329 327 322 319 317 314 312 309 308 306 304 303 304 303 300 299 299 299 298 297 297 297
312 315 320 323 325 326 327 326 326 326 325 321 318 317 317 314 312 311 308 307 305 301 300 299 299 298 298 298 297 296 296 295
313 315 320 323 324 325 324 323 322 323 319 317 317 316 315 314 312 309 307 304 301 300 298 297 295 298 294 295 295 296 297 295
315 317 321 323 323 322 321 320 320 317 315 313 311 309 306 305 303 302 301 299 299 297 297 297 297 298 293 293 292 294 294 294
316 319 320 320 320 319 318 316 314 311 309 308 306 305 302 302 301 300 299 299 298 297 297 299 299 295 292 292 291 293 293 293

GFSFLT1_sfc_thetae_051.txt.gz
Theta_e
311 312 311 313 314 314 315 315 315 316 317 316 316 316 315 319 320 321 326 325 326 326 325 323 322 319 318 317 315 313 310 307
314 313 312 311 312 311 312 312 313 314 314 313 312 312 316 316 319 320 323 326 327 326 324 323 322 319 317 317 314 311 306 304
313 313 312 312 312 312 311 312 312 312 317 312 311 315 317 320 320 319 323 327 327 326 324 322 320 319 318 316 312 307 306 303
312 312 312 311 311 311 311 311 312 314 319 317 315 318 317 314 316 318 322 328 326 326 324 323 320 319 317 313 311 308 305 304
313 313 312 312 311 314 314 312 312 316 320 318 316 317 316 316 314 317 325 326 325 326 325 323 320 320 317 314 314 311 309 304
313 312 313 314 314 314 316 316 315 318 320 320 320 320 319 316 316 317 324 324 324 324 324 323 321 322 319 316 314 312 310 307
315 315 315 316 317 316 317 317 318 319 320 321 323 323 321 317 316 318 323 323 324 326 326 323 322 319 318 315 312 311 307 306
315 316 316 317 317 318 319 320 319 320 320 320 324 323 322 320 319 320 319 320 319 321 322 320 319 318 316 313 309 306 306 305
316 317 318 319 319 320 320 320 320 321 321 322 324 324 323 323 321 319 320 321 320 320 320 318 316 315 311 309 307 305 305 303
314 317 318 319 320 320 321 321 321 322 323 324 323 323 323 323 321 321 320 317 316 316 318 315 314 310 308 307 305 304 303 300
314 315 316 318 320 322 322 323 323 324 323 325 325 324 321 322 322 319 319 319 316 315 315 312 310 307 306 304 303 301 300 300
309 313 316 317 317 320 323 323 323 324 323 324 325 322 320 322 322 321 320 317 314 313 310 309 307 305 304 302 301 300 300 299
310 311 312 314 318 320 321 323 324 324 324 324 324 323 322 321 320 320 319 316 312 310 309 308 305 304 303 301 299 299 299 298
310 312 313 315 315 320 320 322 322 322 325 326 324 323 323 320 319 317 315 311 310 309 308 306 304 303 302 300 298 299 299 298
310 311 313 315 317 320 322 324 324 325 326 324 319 318 316 315 313 311 310 311 307 306 305 304 303 301 299 299 299 298 298 298
306 311 313 315 318 320 320 321 323 324 322 318 315 314 313 312 310 308 307 306 304 303 302 300 299 299 299 298 298 297 296 295
305 308 317 319 320 319 318 318 317 318 316 315 315 314 313 311 308 307 305 302 301 299 298 298 297 298 294 294 296 295 295 295
307 310 317 318 319 318 316 315 315 314 314 314 313 310 308 308 307 304 299 296 295 294 293 294 294 295 293 293 292 294 294 294
310 316 316 317 317 316 314 312 310 308 306 306 306 303 301 301 300 298 296 295 293 293 293 294 294 294 292 292 291 293 290 290

GFSFLT1_sfc_thetae_054.txt.gz
Theta_e
310 313 313 315 314 314 314 315 315 316 316 316 316 316 316 318 319 318 322 323 323 323 323 322 321 318 316 315 314 313 311 308
310 311 312 314 314 314 313 314 315 316 314 313 313 312 313 314 317 318 318 322 322 322 323 321 320 319 317 316 314 311 307 305
310 310 310 312 311 312 313 312 313 315 315 314 312 312 311 315 316 317 318 321 323 323 322 321 320 318 316 315 312 307 307 302
310 310 308 311 310 310 312 312 312 313 315 313 309 309 314 314 315 315 317 320 322 323 323 321 319 318 316 314 311 309 307 305
311 310 309 309 310 311 312 312 311 312 314 314 309 309 309 313 315 316 317 320 323 324 324 321 319 319 317 315 313 310 311 306
310 311 310 311 312 311 311 311 312 312 312 317 312 310 312 316 315 313 316 320 323 324 323 321 320 320 320 317 315 311 311 307
312 312 312 312 311 310 310 309 311 312 312 315 315 312 313 315 314 312 314 320 321 323 324 322 320 320 320 319 316 314 310 307
312 311 311 312 310 310 312 310 309 311 311 314 315 315 315 317 318 314 314 319 318 321 323 321 320 319 319 318 313 311 307 305
312 312 312 312 312 312 312 313 311 311 312 314 316 316 318 321 321 317 316 319 320 319 320 318 318 317 315 313 310 307 306 305
314 314 313 313 314 314 314 314 314 314 315 316 317 318 319 322 322 319 319 318 318 318 318 316 314 314 311 308 306 305 305 304
313 315 315 316 316 316 317 317 316 318 319 319 319 319 321 322 320 319 319 318 316 315 315 314 312 310 307 306 304 304 302 301
312 315 317 318 319 318 318 319 319 320 321 320 320 321 322 320 321 320 320 319 317 315 315 311 308 305 304 304 303 302 301 300
312 313 316 317 318 319 320 320 320 321 322 322 322 323 322 322 320 320 321 318 316 315 312 309 307 305 303 302 301 301 300 298
307 309 311 313 315 316 319 321 321 323 324 323 322 321 321 322 321 321 318 315 313 312 310 308 306 304 302 301 300 299 299 299
307 308 310 313 314 315 316 321 323 323 323 321 321 320 321 323 321 318 316 315 311 310 310 306 304 302 301 299 299 299 299 299
307 308 309 312 315 315 317 319 321 321 319 318 318 321 320 319 319 315 312 311 309 306 303 302 301 300 299 299 298 298 298 297
305 310 311 315 318 317 318 319 320 321 320 320 318 315 314 313 311 308 307 304 305 302 300 299 298 299 294 294 297 296 296 295
302 308 314 317 317 318 316 317 318 319 318 316 314 313 310 308 308 305 302 301 301 298 298 298 297 298 293 293 292 295 294 293
301 308 314 317 316 315 314 314 314 314 313 312 311 310 308 306 303 300 298 299 296 295 295 295 295 294 292 292 290 291 290 289

GFSFLT1_sfc_thetae_057.txt.gz
Theta_e
310 313 314 315 315 316 316 316 316 316 315 316 316 316 317 318 318 321 323 323 323 322 321 321 322 319 317 314 313 311 310 307
309 312 314 314 313 313 314 314 315 315 314 313 313 312 314 315 318 319 320 322 321 321 321 320 319 317 316 315 312 310 307 305
308 310 311 313 312 313 313 314 314 315 314 314 313 312 312 315 316 316 318 318 320 320 321 320 320 318 315 313 311 308 308 303
307 308 308 312 312 312 312 313 313 314 315 313 311 311 311 313 314 315 316 317 319 320 320 319 317 316 316 313 312 309 308 303
308 309 306 308 311 312 312 311 311 312 315 313 311 309 309 309 312 314 315 317 317 319 320 319 318 318 316 315 314 310 310 306
309 308 307 308 311 308 311 311 311 312 312 313 310 307 307 309 312 313 313 315 317 319 320 319 318 319 318 316 313 310 309 310
310 310 310 308 309 309 309 310 311 311 310 312 312 308 307 308 310 311 312 313 316 318 320 320 319 319 317 317 316 313 312 311
309 309 308 308 308 309 309 309 309 311 310 310 313 313 309 309 310 312 312 311 313 317 319 318 320 321 320 319 317 316 313 310
310 310 309 309 309 309 309 309 309 310 310 310 311 313 314 312 311 314 314 314 315 317 318 319 320 317 315 315 314 313 310 308
311 312 311 310 310 309 309 310 309 310 311 310 310 312 313 313 313 315 318 315 316 316 319 318 316 315 315 312 309 307 306 306
312 312 312 312 312 311 310 311 310 309 309 310 310 311 313 314 315 316 319 319 317 316 315 315 314 313 312 309 305 304 305 304
311 313 314 314 314 313 312 311 312 312 312 311 311 312 314 315 316 318 319 318 318 318 317 315 314 310 307 304 303 303 303 301
310 312 314 314 313 314 314 315 314 315 314 314 314 315 316 317 318 320 320 319 319 319 319 315 311 310 308 306 303 303 302 301
308 310 312 314 315 314 315 315 316 317 317 317 318 319 318 318 319 321 321 321 320 317 315 312 310 309 306 306 304 303 301 300
305 307 311 314 315 316 317 316 317 318 318 318 318 319 319 319 320 321 321 322 318 314 312 310 308 307 306 304 302 300 299 299
303 306 308 310 312 315 317 318 319 319 318 318 318 320 320 320 320 321 320 317 314 312 310 307 305 304 302 300 300 299 298 297
302 307 308 309 310 312 313 314 317 319 319 319 320 319 319 319 320 317 314 311 310 307 305 303 302 301 294 295 298 298 298 297
300 305 309 312 313 313 312 313 315 318 319 318 317 318 318 316 312 309 308 307 305 302 301 300 300 300 293 294 293 297 296 295
300 301 309 312 314 314 312 314 315 316 316 316 316 314 312 309 308 305 301 302 301 300 300 300 298 296 292 292 291 294 292 291

GFSFLT1_sfc_thetae_060.txt.gz
Theta_e
311 312 315 316 317 318 317 316 316 317 318 317 316 317 318 320 320 320 321 320 320 318 319 319 318 317 315 314 313 311 310 308
310 312 314 314 315 315 315 314 315 315 316 315 315 314 314 316 318 321 322 322 322 321 321 320 320 318 317 316 313 311 309 307
310 310 312 312 312 314 314 314 315 315 318 318 315 314 313 315 316 317 320 321 321 321 321 320 319 318 316 314 312 310 309 305
308 308 310 311 311 312 314 314 314 315 315 314 311 311 313 312 313 314 316 317 318 320 319 320 318 318 315 313 312 310 308 305
308 307 307 311 312 313 313 314 314 314 314 314 311 312 311 311 312 314 315 317 316 318 318 317 317 316 315 314 314 311 309 306
307 307 308 310 312 312 312 311 313 314 312 312 310 306 309 309 313 313 314 315 315 316 317 317 317 317 316 314 312 310 309 307
309 309 307 307 308 310 311 309 310 312 312 312 311 309 307 306 307 309 311 312 313 315 316 316 316 316 316 316 314 314 313 312
308 307 306 306 306 307 308 310 309 309 310 311 312 309 308 307 306 307 308 309 310 312 314 315 315 317 318 318 317 316 315 313
308 309 308 307 307 308 308 308 309 310 309 308 310 312 311 309 308 308 309 310 310 312 313 315 316 316 318 319 318 317 315 313
309 309 309 308 308 308 308 308 309 309 309 309 308 309 312 312 310 308 310 311 312 312 314 315 315 315 315 316 315 313 311 309
309 310 309 310 309 309 309 309 308 309 309 310 309 309 310 312 312 311 311 313 313 313 313 314 314 314 313 312 310 307 308 304
309 310 311 311 311 310 309 309 309 308 309 309 310 310 310 310 311 312 313 314 317 317 317 317 316 314 314 313 310 306 306 304
308 310 311 311 310 310 309 309 309 310 310 309 310 311 311 310 310 312 313 315 318 318 318 318 318 315 310 309 307 307 306 303
305 307 311 311 311 311 311 311 310 311 312 310 310 310 310 310 311 312 314 316 318 317 318 317 316 313 312 310 309 307 305 303
302 305 309 312 312 312 312 312 313 312 312 312 311 310 311 311 313 314 316 318 318 318 318 318 315 311 310 308 306 304 304 303
300 304 307 310 312 312 313 313 314 314 313 312 313 314 314 315 316 316 317 318 318 319 318 313 310 307 306 305 304 303 301 299
299 303 304 307 311 312 314 314 314 314 314 314 315 315 316 316 317 317 317 318 319 319 314 311 306 305 297 297 300 300 299 298
299 301 305 307 308 311 312 314 314 315 315 315 315 315 315 316 317 317 318 317 313 311 308 306 304 302 294 295 294 299 297 297
300 300 302 306 308 308 308 309 311 314 315 315 315 315 316 317 315 314 311 308 308 305 305 303 301 297 293 292 292 295 294 293

GFSFLT1_sfc_thetae_063.txt.gz
Theta_e
312 313 316 318 319 319 319 321 320 321 320 322 321 320 324 325 324 322 324 323 323 323 323 323 323 321 322 322 320 319 316 315
313 314 316 316 317 317 318 317 319 320 318 317 317 318 323 324 324 322 324 323 323 325 325 324 324 323 322 321 321 319 317 316
312 312 315 314 316 317 317 316 317 319 320 320 319 321 321 322 323 323 323 323 324 325 325 325 324 324 322 322 321 320 320 316
310 310 312 314 314 316 316 316 316 317 319 316 315 315 316 318 320 321 323 325 325 326 326 325 325 326 323 323 322 320 319 316
311 311 311 312 315 318 318 316 316 316 317 316 316 316 314 318 318 322 321 323 324 324 324 324 325 326 324 323 323 323 322 318
312 311 312 313 315 316 317 316 317 316 316 316 313 315 317 315 315 318 319 320 321 322 321 323 324 325 326 326 324 322 322 321
314 314 313 312 314 316 317 316 317 316 315 316 315 314 313 313 312 314 316 320 320 321 321 323 325 325 325 325 326 324 322 321
313 311 310 310 311 315 315 315 315 316 315 315 315 316 315 315 313 315 317 318 319 320 322 322 323 325 325 326 325 324 323 321
314 313 312 311 310 314 314 313 314 315 316 316 317 317 316 316 315 316 317 319 320 321 321 322 323 324 325 326 325 325 324 316
314 314 314 313 312 312 313 313 313 315 315 316 316 317 317 317 317 318 317 318 318 319 321 321 323 324 325 325 325 324 322 319
314 314 315 314 314 314 314 315 314 315 315 316 315 316 318 318 319 317 318 319 318 319 320 321 322 323 324 324 323 322 320 320
313 315 316 316 315 314 314 314 314 315 316 316 316 316 316 317 318 318 319 319 319 319 320 320 320 320 321 321 319 318 316 317
313 315 315 315 315 314 314 314 314 315 316 316 316 316 316 315 315 316 319 319 319 319 320 319 317 318 319 316 316 314 311 310
310 314 314 315 315 315 314 314 315 315 315 315 316 316 316 315 315 316 318 317 318 319 320 320 319 318 318 317 316 313 312 312
307 311 314 316 316 315 315 315 316 315 315 314 314 314 315 316 317 317 317 317 317 319 320 320 320 320 319 316 313 311 309 309
305 308 312 315 316 316 316 316 316 316 315 315 315 316 316 316 316 317 317 317 318 318 319 320 321 320 318 316 314 313 309 305
307 306 309 312 314 316 317 317 318 317 316 315 316 317 316 316 317 317 317 318 318 320 319 320 318 315 302 302 308 308 306 303
306 306 306 311 314 316 317 318 318 317 317 317 317 317 317 317 317 318 318 319 320 319 318 318 317 314 299 299 298 305 302 300
306 307 307 309 312 314 317 318 318 317 317 317 318 318 317 318 319 319 320 320 318 317 316 312 312 306 297 294 293 300 297 297

GFSFLT1_sfc_thetae_066.txt.gz
Theta_e
318 318 318 321 321 323 322 322 319 323 325 324 325 324 324 325 325 326 327 325 326 325 324 325 326 326 326 324 324 324 322 320
319 319 317 319 319 319 321 319 319 323 322 320 320 321 323 322 322 324 327 325 326 328 325 325 326 325 327 327 326 324 322 323
317 318 318 318 319 320 319 320 322 321 322 321 323 324 323 323 322 323 325 327 324 324 326 324 326 325 326 327 326 323 324 323
317 316 317 317 318 319 319 319 320 323 322 322 319 320 320 322 322 322 323 325 322 323 326 326 327 327 325 326 326 325 322 324
319 318 317 320 317 320 322 320 319 320 321 319 319 315 313 323 323 323 321 325 323 323 327 328 328 328 326 327 327 326 326 322
320 319 318 319 321 319 322 321 319 319 319 318 317 315 316 321 321 323 320 323 325 325 327 328 327 329 328 330 327 328 327 327
321 321 320 320 321 322 321 322 320 319 318 319 317 320 320 320 318 320 319 320 323 323 324 326 327 327 327 327 329 330 328 328
321 320 319 319 319 320 319 320 320 320 318 319 318 319 318 316 318 317 318 318 319 320 324 325 325 324 326 325 328 328 328 327
321 321 321 319 319 320 321 320 320 320 321 320 321 319 318 320 318 318 317 319 321 321 323 324 324 326 326 327 328 327 329 328
320 322 322 321 319 320 321 321 321 321 322 322 320 321 321 322 323 322 321 320 321 323 325 322 323 325 326 326 327 326 327 329
320 321 322 322 321 320 322 321 320 322 322 323 323 323 323 323 324 323 323 324 324 325 325 324 324 324 324 325 326 326 326 328
319 321 323 323 323 321 320 320 320 321 322 322 322 323 325 325 324 324 324 324 324 323 323 323 323 323 324 325 324 324 324 325
320 321 322 323 322 321 320 320 320 321 322 322 322 323 323 323 323 324 325 325 325 324 324 322 322 323 324 324 324 323 322 319
316 320 321 321 322 322 321 321 320 321 321 321 322 322 322 322 322 322 323 323 324 324 323 323 323 323 323 324 323 320 317 316
314 317 319 321 322 323 322 322 322 321 320 320 320 322 322 323 322 322 323 323 322 323 324 323 324 323 323 323 322 318 317 315
312 313 317 320 322 322 323 323 323 322 321 320 321 322 322 322 322 322 323 323 322 322 322 323 324 323 322 323 322 321 319 317
312 313 314 316 320 322 322 322 323 323 321 321 321 321 321 321 322 322 322 322 321 321 322 322 323 321 307 301 310 321 319 316
311 313 314 315 317 320 322 323 324 322 321 322 322 322 321 321 321 320 320 321 321 322 322 321 321 322 300 300 300 317 315 312
310 312 313 314 315 318 322 323 323 323 322 321 321 321 321 322 321 320 321 322 321 322 321 321 322 322 300 300 299 310 306 303

GFSFLT1_sfc_thetae_069.txt.gz
Theta_e
322 322 324 324 326 325 323 323 322 322 325 325 323 323 323 324 324 324 327 327 329 327 327 330 329 325 325 326 326 325 324 322
323 322 323 323 322 322 321 319 320 321 322 322 319 319 320 321 322 325 326 327 327 328 325 327 328 326 326 328 327 327 323 324
322 322 321 320 321 321 322 321 321 321 324 323 322 320 321 320 322 323 327 328 326 325 325 326 327 327 329 329 328 325 324 326
321 321 321 321 320 322 322 322 322 323 324 323 322 322 321 319 320 321 324 327 326 325 328 328 326 328 328 329 330 328 322 326
322 321 320 322 320 322 323 323 323 322 324 323 321 320 318 318 318 321 321 326 325 326 327 326 327 329 329 329 329 329 325 320
322 322 321 323 322 320 322 322 322 323 324 324 320 318 322 320 319 319 321 323 325 324 324 325 324 329 329 331 328 328 327 322
323 323 323 321 324 323 323 321 321 322 323 323 321 320 320 317 320 319 319 321 325 326 323 323 325 326 328 327 325 325 325 327
322 321 322 320 322 324 323 322 319 320 320 322 324 322 317 317 321 322 319 319 321 325 323 321 321 323 325 326 322 325 326 327
322 322 322 321 321 323 324 322 320 321 320 320 323 323 322 321 322 324 322 321 319 323 323 322 325 324 326 326 327 324 327 324
322 323 323 323 322 322 323 322 323 322 321 321 322 325 323 323 323 324 325 324 320 320 322 324 326 326 326 326 325 325 323 324
321 323 323 324 323 323 324 324 323 323 323 323 322 323 324 324 325 324 324 324 324 323 322 323 323 322 323 324 323 326 325 326
321 323 325 325 325 323 323 323 323 323 324 324 324 324 324 325 326 326 326 327 326 325 324 324 323 323 324 325 324 325 324 325
320 323 324 325 325 324 322 323 323 324 325 324 326 327 326 326 326 327 328 327 328 326 327 326 325 325 325 325 324 324 324 324
318 321 322 323 325 325 323 323 323 323 324 324 326 327 327 327 328 328 328 327 327 327 326 325 325 325 325 326 325 325 324 324
315 318 321 323 324 325 325 324 324 323 322 322 324 326 326 327 328 328 328 328 327 326 326 325 325 324 324 325 324 324 324 324
313 315 318 321 323 325 325 325 325 325 323 322 323 327 327 326 327 327 327 327 326 327 326 326 326 325 324 324 324 324 322 321
313 314 316 317 320 323 324 325 327 326 325 324 324 325 325 326 327 327 327 326 326 326 325 325 325 323 309 303 312 325 321 322
312 313 314 316 318 320 323 325 326 327 326 325 325 325 325 325 326 325 325 325 326 325 325 325 324 325 304 301 299 320 322 318
313 315 315 316 318 318 319 322 325 325 324 325 325 326 325 325 325 324 325 325 324 324 325 325 325 324 302 299 297 318 321 321

GFSFLT1_sfc_thetae_072.txt.gz
Theta_e
323 323 324 324 326 324 324 324 324 323 323 323 322 322 321 321 323 324 323 323 325 326 326 325 327 325 324 322 320 321 319 317
323 323 324 323 325 322 322 322 322 322 321 320 319 319 320 319 320 323 324 325 325 326 325 326 325 322 322 323 322 320 320 320
321 321 322 321 321 322 321 320 321 322 323 321 321 321 321 319 320 322 324 324 324 324 323 323 324 323 322 322 321 319 320 320
320 320 320 320 319 321 319 320 322 322 323 322 321 320 319 318 317 319 321 323 323 323 323 322 323 323 323 323 323 321 317 319
321 320 319 319 320 322 322 321 321 322 323 321 318 317 314 316 315 317 320 323 323 323 323 323 322 323 324 324 325 322 321 316
320 320 321 320 321 320 322 322 321 322 322 321 319 318 318 317 315 315 319 321 322 323 323 324 323 322 324 324 323 323 322 318
321 322 322 320 322 320 323 322 321 321 322 321 321 319 318 317 315 315 318 318 322 322 323 324 323 325 324 322 323 322 320 318
320 320 319 320 320 320 321 320 320 321 321 321 321 321 319 318 315 315 317 317 318 321 321 322 321 322 324 324 321 320 320 318
320 320 320 319 321 321 320 321 320 321 321 321 321 321 320 320 319 317 316 318 319 321 322 321 321 321 321 320 319 320 319 319
320 321 321 320 320 322 321 321 320 320 320 321 322 322 322 319 320 321 320 319 319 320 321 321 319 319 319 319 319 318 319 319
320 321 321 321 321 322 324 322 321 321 320 320 321 321 322 320 320 319 322 322 321 320 320 321 320 319 319 319 318 319 319 318
319 321 322 322 322 322 322 322 321 322 321 320 320 320 322 322 321 321 321 322 322 320 319 319 319 318 319 319 319 318 317 317
320 320 322 322 322 321 321 322 322 322 323 321 321 321 321 321 321 321 322 321 322 321 320 319 319 319 319 318 317 318 317 315
319 321 321 322 322 322 321 322 322 323 323 323 322 321 321 321 321 322 322 322 321 322 321 319 319 319 318 318 318 317 317 317
315 318 320 322 324 324 323 322 323 322 322 322 322 322 322 322 322 322 322 323 321 321 321 320 320 320 320 319 319 318 318 318
313 313 317 320 323 324 325 324 323 323 321 321 322 323 324 324 323 324 323 323 323 322 322 321 321 321 321 320 320 319 318 319
312 313 313 314 320 322 324 325 325 324 322 320 321 322 323 323 323 324 324 323 323 322 322 321 320 320 309 303 311 318 318 317
311 313 315 315 315 318 318 324 326 325 323 323 322 322 321 322 323 323 322 322 322 322 321 321 320 320 304 301 300 317 318 317
311 313 315 317 318 318 319 320 318 324 324 324 323 323 322 322 322 321 322 322 321 320 320 321 320 320 302 301 298 310 315 316

GFSFLT1_sfc_thetae_075.txt.gz
Theta_e
317 319 320 321 323 322 319 320 322 322 322 323 323 323 323 324 323 323 324 324 324 323 325 325 325 322 321 320 318 315 315 315
318 319 319 320 321 322 321 320 321 322 320 320 319 318 321 321 322 322 323 323 324 324 324 324 325 323 321 319 317 316 314 315
316 317 317 318 320 321 321 320 321 321 321 321 321 319 320 321 322 322 322 322 322 322 323 322 324 322 321 318 318 316 316 315
314 316 315 315 319 320 319 319 320 322 322 321 321 320 319 318 319 319 320 321 323 322 323 323 323 322 320 318 318 316 315 316
315 315 314 314 316 320 320 320 320 322 322 319 319 317 315 316 318 319 320 322 322 321 321 320 321 320 319 319 320 318 318 314
314 314 315 315 315 319 319 320 320 321 321 320 318 317 318 318 317 317 319 320 322 321 321 319 318 319 319 320 320 319 318 316
315 316 316 315 317 319 320 319 319 321 321 320 318 317 316 315 315 315 316 318 320 320 320 319 318 318 320 321 320 320 318 317
314 314 314 315 315 318 320 319 317 320 320 319 318 318 316 315 313 312 314 316 317 318 318 319 319 319 320 321 321 320 319 317
315 315 314 315 316 316 319 319 319 319 320 319 320 319 317 315 314 312 313 316 318 320 319 321 319 319 322 320 320 320 319 318
315 315 315 316 316 316 317 317 318 320 319 320 320 320 319 318 316 314 314 316 318 319 320 319 320 319 319 319 319 318 319 319
315 315 314 317 317 317 317 318 317 318 320 321 320 320 320 319 319 316 315 316 318 319 319 320 319 319 319 318 317 317 317 317
315 316 316 316 318 318 317 318 318 318 318 319 320 320 320 320 318 318 317 317 316 318 319 320 320 318 318 317 317 316 316 316
315 316 316 315 316 318 318 318 318 318 318 318 318 320 321 320 318 318 318 319 319 318 318 318 319 318 317 316 315 316 315 315
313 316 316 316 316 317 318 319 318 318 318 317 317 317 318 319 320 320 318 318 319 320 319 317 317 317 317 316 315 315 316 316
311 312 315 317 317 317 318 318 319 319 319 318 317 316 317 317 319 320 320 319 318 319 319 318 317 317 316 316 316 315 315 316
310 310 311 314 317 317 318 318 319 320 319 318 318 318 318 318 318 319 319 319 319 319 318 319 318 317 317 316 316 316 315 315
310 312 313 313 314 315 317 318 319 320 318 318 319 320 320 319 319 319 319 319 319 319 319 318 318 318 308 302 310 316 315 314
310 310 310 310 310 312 313 316 318 319 319 318 318 318 319 320 320 320 319 319 319 318 319 318 318 318 303 301 299 315 316 316
309 307 305 304 305 310 312 310 310 311 314 316 318 318 318 319 320 320 320 320 319 319 319 319 319 319 302 300 297 309 315 315

GFSFLT1_sfc_thetae_078.txt.gz
Theta_e
317 319 321 319 318 316 316 318 320 322 324 325 326 326 326 326 327 326 326 325 322 319 319 321 318 317 317 317 315 314 313 312
318 318 320 319 317 316 316 317 321 321 321 320 321 320 322 323 324 324 324 324 324 321 319 322 320 319 319 318 315 313 311 311
316 317 319 319 318 317 318 318 320 320 320 321 320 321 322 322 323 322 323 323 322 322 321 322 323 320 318 315 315 313 312 312
314 315 316 318 317 317 318 319 319 319 320 320 320 319 319 320 320 320 321 322 322 322 322 322 323 321 318 315 314 315 312 311
315 314 315 316 316 318 318 319 320 320 320 319 318 317 315 318 319 320 319 321 322 321 322 322 321 321 319 319 318 314 314 312
314 314 315 316 316 317 319 319 320 321 320 318 318 317 317 318 319 318 318 319 321 320 321 321 321 320 319 319 319 317 315 314
314 315 314 313 315 316 318 318 319 321 320 319 318 316 316 316 316 316 317 318 320 320 320 320 321 320 318 319 321 318 316 316
311 312 312 312 314 315 318 319 318 319 320 319 318 316 317 316 315 316 315 316 317 319 318 318 319 320 320 320 320 317 315 314
312 312 313 313 314 315 316 318 318 319 320 319 319 318 317 317 316 314 315 317 318 320 319 319 318 318 319 320 319 318 318 317
312 313 313 314 314 315 316 317 317 318 320 319 319 319 318 315 315 315 313 316 318 319 319 320 319 319 319 319 318 317 318 317
313 313 313 314 315 316 316 317 318 319 320 320 319 319 318 316 314 312 313 314 317 318 319 318 320 319 320 320 318 318 318 317
313 313 314 315 315 315 316 316 316 318 319 320 319 320 319 318 316 314 312 313 315 316 318 318 318 319 319 318 319 318 317 317
313 313 314 315 315 315 315 316 316 316 318 318 319 320 320 319 318 318 315 313 314 315 317 317 318 318 318 318 317 317 315 315
311 312 313 315 315 315 315 316 316 317 317 317 317 318 318 319 319 319 319 316 315 314 315 316 316 317 317 316 316 315 315 314
310 310 311 313 314 316 316 316 317 317 317 316 316 316 317 318 320 319 318 319 318 318 316 316 316 316 317 317 316 314 314 313
309 309 310 313 314 314 315 316 317 317 317 316 315 316 317 317 317 318 319 319 318 318 318 318 317 316 316 316 316 315 314 313
305 305 305 306 310 312 314 315 316 318 316 317 317 317 316 316 316 316 317 318 319 319 317 317 317 317 307 302 309 314 314 313
301 300 300 301 303 306 305 307 309 312 316 316 316 317 317 317 317 316 316 316 317 317 317 317 316 317 303 300 299 314 314 313
297 297 296 296 300 301 302 302 303 304 304 304 305 304 308 311 318 317 317 317 317 316 317 317 317 317 301 300 297 310 314 315

GFSFLT1_sfc_thetae_081.txt.gz
Theta_e
315 315 318 317 316 315 316 316 320 322 324 326 327 327 326 328 329 328 325 323 321 318 317 315 315 313 313 314 314 311 313 314
314 317 318 316 314 314 316 317 319 321 322 321 322 322 325 327 328 327 324 322 319 316 317 315 315 312 314 316 314 311 309 312
315 317 319 318 315 314 315 316 319 318 321 321 321 322 323 325 325 326 326 322 318 317 318 315 316 314 315 315 313 310 309 310
313 316 317 317 316 315 316 316 317 319 321 320 320 320 321 320 321 323 323 323 322 317 319 318 318 318 317 316 314 312 310 309
314 316 316 316 316 317 317 315 318 320 320 319 319 318 316 319 320 321 321 322 322 321 320 322 320 319 318 317 316 315 313 310
313 314 317 317 317 316 317 316 318 320 319 319 318 316 317 319 320 319 319 320 321 321 322 321 321 321 320 318 316 315 313 311
313 315 317 315 316 316 315 316 317 319 319 318 317 317 316 317 317 317 317 318 320 320 321 321 321 320 320 319 319 316 315 314
312 312 313 313 314 314 315 315 316 319 317 317 317 317 316 315 316 317 317 317 318 319 319 320 320 320 319 319 319 318 316 313
311 312 312 314 314 314 315 315 317 319 319 318 317 317 317 316 315 317 317 317 318 320 319 319 320 320 318 318 318 318 317 316
311 312 312 312 313 314 314 315 316 318 319 318 318 317 317 316 316 317 317 317 317 319 319 318 318 319 319 318 317 317 318 317
311 312 312 313 314 315 315 316 316 317 320 319 318 317 316 316 314 313 313 313 315 316 317 317 318 318 319 319 318 318 317 318
311 312 313 313 314 314 314 315 315 315 319 320 319 318 318 317 314 311 312 311 313 315 317 318 317 318 318 318 318 318 316 317
312 312 313 313 313 314 314 314 315 316 319 319 319 319 319 317 315 313 311 311 312 314 315 317 318 317 317 317 317 317 315 315
309 311 312 312 312 313 314 314 313 314 316 316 316 317 318 318 317 317 315 311 311 313 314 315 316 316 316 316 317 317 316 316
309 310 312 314 314 314 315 316 315 315 315 315 314 314 315 317 318 318 318 317 314 312 312 314 314 315 316 316 316 315 315 315
305 306 309 311 312 314 315 315 316 316 315 315 315 314 315 315 315 316 317 318 318 316 315 314 314 314 314 315 316 315 314 313
300 302 304 304 305 306 307 308 310 316 316 315 315 315 315 315 315 315 315 315 316 316 317 317 315 315 304 300 307 314 314 313
296 296 298 299 300 301 300 303 305 306 307 307 307 313 316 314 314 314 314 314 315 315 315 315 316 317 302 301 299 313 314 313
293 294 294 296 297 297 297 298 299 299 299 299 299 303 304 307 310 316 315 315 315 315 316 317 316 316 296 298 297 310 314 314

GFSFLT1_sfc_thetae_087.txt.gz
Theta_e
310 310 318 323 326 328 329 328 327 331 331 329 328 326 326 326 326 327 329 328 330 329 327 323 324 324 322 322 322 323 323 322
310 309 318 322 325 326 326 326 325 327 327 325 324 323 324 324 326 327 326 328 329 328 325 322 323 324 322 322 322 321 321 323
308 314 319 321 322 324 323 325 324 324 327 327 327 326 326 326 326 327 327 326 328 325 322 321 322 324 322 320 321 320 320 321
308 314 318 320 320 322 321 324 324 324 324 324 325 325 325 325 324 325 326 326 327 324 322 322 324 323 320 321 321 321 316 320
308 314 317 319 320 320 322 323 323 324 325 323 322 320 320 321 324 323 321 323 324 321 322 322 321 320 321 320 320 320 321 318
308 314 318 320 319 318 319 321 320 321 322 323 321 320 321 323 323 320 318 318 319 319 320 319 318 319 320 319 317 320 323 321
310 317 319 320 318 317 318 317 320 319 320 322 322 321 321 320 320 318 317 316 318 317 317 317 317 319 319 320 320 320 320 321
314 316 317 319 316 317 317 316 319 319 320 321 322 322 322 321 318 319 317 316 317 319 318 318 319 320 318 318 321 319 318 318
313 317 318 318 316 316 317 316 317 318 319 320 320 321 321 320 320 319 320 318 317 318 317 317 319 320 319 319 319 320 318 320
311 316 318 318 317 315 316 316 317 318 318 319 319 320 320 320 321 320 320 321 320 318 317 316 316 315 317 319 318 318 318 321
310 314 317 318 319 316 316 316 316 317 318 319 318 318 319 320 319 319 319 319 321 320 320 318 317 316 315 317 318 319 319 318
312 315 317 317 316 315 315 315 315 316 317 319 318 317 318 318 319 320 319 318 319 319 319 319 319 318 316 315 314 317 317 317
313 313 313 314 314 314 314 315 315 317 318 320 320 319 317 317 318 318 319 321 322 321 320 318 318 318 319 317 315 316 317 317
311 312 311 312 312 314 314 316 318 319 318 320 319 318 318 317 317 317 316 318 320 320 321 321 320 318 317 318 318 318 317 316
307 310 311 312 313 313 314 317 319 320 321 321 319 319 320 319 318 317 316 317 318 320 320 321 321 321 321 319 318 318 318 318
298 301 305 309 312 313 314 316 318 320 319 320 319 320 322 321 321 321 320 318 317 318 319 320 321 321 320 321 320 318 318 318
294 295 297 299 301 304 304 308 317 318 317 316 318 319 320 320 320 320 321 320 319 318 317 318 318 316 303 301 311 317 318 318
290 292 293 294 296 297 298 299 301 301 301 301 303 309 309 310 314 316 317 318 319 317 317 316 315 307 290 292 295 316 317 317
287 289 290 291 292 292 293 294 294 294 294 294 296 298 298 299 300 302 305 304 300 302 299 303 294 290 289 289 289 304 309 313

GFSFLT1_sfc_thetae_090.txt.gz
Theta_e
315 317 318 319 326 331 335 339 337 335 335 336 335 334 332 332 329 329 329 330 331 330 329 328 327 324 324 326 328 330 329 327
315 317 319 320 326 330 332 336 333 333 333 332 331 329 329 328 328 328 328 329 329 330 328 326 324 323 323 328 328 328 327 328
313 315 317 323 325 329 331 335 330 334 336 335 332 329 329 329 328 327 328 328 330 329 326 325 324 322 322 328 328 326 326 327
310 313 316 323 325 328 330 333 332 335 335 333 331 330 328 328 326 325 326 328 329 328 325 324 324 323 322 327 329 327 323 325
311 312 315 321 326 329 330 332 334 333 334 331 329 327 323 326 325 327 327 326 327 325 325 324 324 324 324 327 330 328 327 322
312 312 315 320 326 328 330 332 332 332 331 331 328 325 326 329 329 325 325 326 325 324 324 324 323 323 326 329 329 328 326 325
314 315 316 321 326 324 327 330 330 330 330 329 328 326 324 326 323 322 320 319 323 322 323 323 323 323 325 326 326 329 328 328
316 317 319 322 323 320 323 327 327 328 328 327 326 325 326 326 321 318 317 316 316 317 319 319 320 323 326 325 326 327 326 326
318 317 321 323 320 318 320 323 326 325 325 324 325 327 326 326 322 320 316 317 316 317 317 318 319 321 323 324 325 323 324 325
318 318 321 323 321 317 319 323 326 325 323 322 324 326 325 323 322 321 319 319 318 319 318 319 320 320 321 323 322 319 321 324
318 316 320 323 323 318 320 324 324 323 323 322 324 323 324 324 324 321 320 319 318 317 316 317 317 317 317 318 318 318 318 319
316 318 319 322 321 318 318 321 321 320 321 321 323 321 322 322 322 321 320 320 318 317 315 315 314 313 314 313 312 316 319 318
313 314 317 317 316 317 317 318 318 321 320 320 321 320 322 320 321 321 320 320 321 321 319 318 317 316 314 313 312 313 316 317
303 312 313 314 315 315 316 317 318 321 319 320 320 319 322 322 323 324 325 323 321 321 320 319 318 317 315 314 314 312 313 316
299 299 308 313 314 315 315 317 318 318 319 319 320 321 320 321 322 322 323 324 323 323 323 322 321 320 320 318 315 316 315 317
294 294 297 301 312 314 316 318 320 321 321 318 319 320 321 321 321 320 320 320 321 324 323 323 323 322 321 321 320 319 318 321
291 292 293 295 297 305 306 314 319 320 318 317 320 321 321 322 321 322 321 319 319 319 319 322 323 320 291 294 312 323 322 321
287 289 290 291 293 296 298 300 302 302 302 302 304 307 307 308 315 318 319 320 322 319 318 319 303 297 289 291 290 316 320 319
286 286 289 289 290 291 293 293 294 294 294 295 297 298 298 300 301 302 299 299 297 297 296 294 292 290 289 289 289 306 313 295

GFSFLT1_sfc_thetae_093.txt.gz
Theta_e
315 317 319 318 320 325 330 339 344 339 339 338 337 338 338 336 336 337 335 335 334 335 332 330 333 328 327 328 326 326 327 326
314 317 319 320 321 323 329 335 343 338 334 332 333 332 332 333 333 333 334 333 331 331 330 330 330 325 326 326 326 324 324 330
312 314 317 319 320 322 329 332 338 337 334 336 338 335 334 333 333 331 332 331 331 329 330 328 327 325 324 324 324 322 323 327
311 313 315 319 320 324 327 331 336 337 338 338 336 335 331 329 330 331 331 331 330 329 329 327 325 324 324 324 325 323 322 325
315 314 314 316 321 326 329 331 336 334 338 336 334 328 325 328 330 330 328 328 328 328 328 326 324 325 323 323 325 324 325 321
315 315 315 316 320 325 330 331 334 335 338 336 334 331 331 330 330 330 329 327 327 327 326 325 324 323 324 324 324 326 326 325
318 317 317 316 319 328 331 331 332 334 335 335 334 332 330 326 329 329 327 326 325 325 325 325 324 324 324 324 326 326 326 328
318 318 316 317 320 327 330 330 331 333 333 333 333 331 329 327 327 328 323 321 322 323 323 323 323 323 324 324 325 328 329 328
319 319 320 321 324 327 326 329 329 331 332 332 331 330 327 328 328 326 322 319 320 322 323 323 323 323 323 325 326 328 328 327
320 321 320 324 326 322 322 328 329 330 330 330 328 327 327 327 326 323 320 319 317 318 320 321 322 323 323 323 323 323 325 326
314 321 320 324 325 320 321 327 327 327 327 328 326 325 326 327 325 320 318 319 318 317 318 318 319 321 322 321 321 323 324 326
307 316 322 324 325 320 320 324 325 325 325 324 324 323 325 326 325 322 318 318 318 317 318 318 318 319 320 321 322 321 320 320
303 305 316 320 319 320 319 324 323 323 323 322 323 323 323 323 323 321 320 317 317 317 316 316 315 314 315 315 314 315 314 314
298 300 302 313 316 317 318 319 320 321 321 321 322 322 322 321 321 323 321 319 318 317 316 315 314 313 313 313 312 312 313 313
295 295 297 300 309 316 317 318 320 320 320 319 321 323 323 323 324 324 322 323 320 320 320 319 318 316 315 314 313 312 313 314
291 292 293 295 297 302 316 317 318 320 319 319 320 323 323 324 323 323 324 324 323 323 322 322 321 319 317 315 315 314 313 313
289 290 290 291 293 295 300 308 316 322 319 318 320 322 321 321 322 322 321 322 322 323 322 323 322 301 291 292 308 317 316 318
287 287 288 289 290 292 293 298 303 303 302 303 306 309 309 310 315 315 314 317 318 312 310 302 296 294 290 291 291 313 316 310
285 285 287 287 288 289 291 292 294 295 295 296 298 300 300 300 301 299 297 296 296 296 295 294 293 290 289 290 291 306 295 292

GFSFLT1_sfc_thetae_096.txt.gz
Theta_e
314 315 316 317 317 318 327 345 344 342 341 339 338 337 337 339 338 337 337 337 336 334 332 331 331 329 328 327 325 326 325 324
311 315 319 318 320 320 326 336 342 340 338 335 334 332 334 334 337 337 336 334 333 333 331 330 330 328 327 327 325 324 323 325
309 311 315 319 318 320 324 333 341 338 337 336 334 332 333 333 332 333 333 332 332 331 331 329 328 327 326 326 324 322 323 324
310 312 314 316 319 322 324 329 341 339 337 335 334 334 334 332 330 329 330 331 331 330 330 329 328 327 325 325 324 322 320 322
315 315 315 316 319 323 323 326 330 340 336 333 333 331 327 328 328 329 329 330 330 330 329 328 327 326 325 324 325 323 322 318
316 316 317 316 317 323 325 326 328 337 335 335 333 331 329 328 328 328 327 328 329 328 328 327 326 326 325 324 324 323 322 320
317 318 318 316 317 322 326 327 330 335 335 335 334 329 329 327 326 326 326 326 326 327 327 326 325 324 324 324 324 324 323 322
317 316 317 316 316 322 327 327 328 333 332 334 334 331 331 329 326 326 326 324 323 324 325 324 324 324 324 325 324 324 323 321
314 315 320 320 320 327 327 327 327 332 331 333 332 329 329 328 326 327 325 322 323 325 324 324 324 324 324 324 324 323 323 322
310 313 317 322 326 327 327 326 327 331 330 329 328 329 327 326 326 325 323 321 321 322 323 323 323 323 323 323 323 321 321 323
306 309 310 320 323 323 324 327 326 328 327 327 326 325 326 326 325 322 320 319 319 319 319 322 322 322 323 323 322 322 322 322
302 302 306 309 322 320 321 324 324 324 324 324 323 323 324 324 323 321 319 318 318 317 317 318 321 321 322 322 321 321 321 321
299 298 299 300 306 319 319 321 321 322 323 322 322 322 323 324 322 320 319 317 318 318 318 317 316 318 321 320 319 320 320 318
296 295 295 296 298 304 318 318 319 321 321 321 321 321 321 322 322 320 318 317 317 317 316 315 314 314 313 316 316 315 315 315
292 292 292 293 294 296 300 317 319 320 319 320 320 320 320 320 321 321 319 317 316 316 316 315 314 313 313 312 312 312 312 313
290 289 290 290 291 292 296 300 318 320 319 318 319 321 321 322 322 321 321 319 318 317 317 316 315 314 314 313 312 312 311 312
287 287 287 288 288 290 292 294 300 318 314 316 319 320 321 321 321 322 321 321 320 320 318 318 314 297 291 294 308 313 313 313
284 285 285 286 287 287 289 291 295 300 302 303 306 308 308 306 307 306 304 306 303 300 299 297 293 292 290 292 297 313 312 308
282 283 284 285 286 287 288 289 290 292 293 295 298 298 297 297 296 295 294 294 294 293 292 292 291 290 290 291 294 297 292 290

GFSFLT1_sfc_thetae_099.txt.gz
Theta_e
309 309 311 310 313 311 329 341 339 339 339 336 334 335 337 334 331 333 335 335 333 330 329 329 329 328 328 328 327 327 326 325
305 306 308 309 310 312 324 339 338 339 336 333 332 332 334 335 335 332 335 336 334 332 331 330 330 328 326 327 326 325 323 325
302 305 303 308 308 310 324 339 338 338 337 335 333 333 333 333 334 334 334 333 333 332 330 329 329 327 327 326 325 323 323 324
301 303 303 303 309 310 329 338 338 337 335 333 330 329 331 330 330 331 331 332 332 331 330 329 329 328 326 326 324 323 320 322
306 309 309 308 308 310 329 338 336 335 334 332 329 328 326 329 330 330 330 331 330 330 330 328 328 327 326 326 325 324 322 319
311 312 312 312 309 311 323 336 335 334 333 331 329 327 327 329 328 327 328 328 329 328 328 328 327 327 326 325 325 323 323 321
312 314 314 316 316 310 314 330 335 333 331 329 328 327 326 325 324 324 326 326 327 327 328 327 327 327 325 325 325 323 323 322
308 309 310 312 313 311 316 321 332 331 329 329 329 328 327 323 322 323 322 323 324 324 326 325 326 326 325 325 325 324 323 321
304 306 308 309 316 315 317 325 329 329 329 328 328 329 329 327 324 324 323 323 323 323 324 326 326 326 325 325 325 324 323 322
301 302 304 304 316 318 317 320 324 327 326 326 327 329 327 325 325 324 321 319 321 323 325 324 324 324 324 324 324 323 323 322
297 298 301 302 304 315 317 319 320 324 325 326 326 324 325 324 323 319 317 317 319 319 322 323 323 323 323 323 322 323 322 322
294 295 298 299 301 302 309 318 318 320 325 323 323 322 323 323 321 318 318 318 317 317 318 319 321 322 322 322 322 322 321 321
292 292 293 295 295 297 299 306 319 320 322 322 321 322 322 322 320 317 318 317 317 317 317 318 319 321 321 321 320 321 319 319
289 289 290 291 292 294 295 298 302 320 320 320 320 321 321 320 319 318 318 317 317 317 317 315 315 317 320 320 321 320 320 320
287 286 287 288 290 291 293 295 298 306 320 319 319 319 320 320 319 318 317 317 316 316 316 315 315 314 315 318 318 318 318 318
285 285 285 286 287 289 291 292 295 299 317 319 319 319 320 319 319 318 318 317 316 317 316 314 314 313 310 314 315 315 314 313
283 283 284 285 285 287 289 290 292 295 300 310 316 318 320 319 320 319 318 317 316 316 315 315 303 298 291 295 307 312 312 312
281 282 283 284 285 286 287 288 290 290 291 295 301 303 303 304 304 302 301 299 298 297 296 296 293 293 291 293 296 312 311 310
280 281 282 284 285 285 287 287 287 287 288 289 292 294 294 294 294 293 292 291 290 290 290 290 290 290 291 292 292 294 290 289

GFSFLT1_sfc_thetae_102.txt.gz
Theta_e
304 305 307 308 309 309 331 337 338 339 339 338 334 334 334 335 335 336 333 334 332 331 329 329 330 328 328 328 326 326 324 324
302 303 304 305 307 308 320 334 337 339 337 335 332 333 333 332 333 334 334 332 331 330 329 329 330 329 328 328 326 325 324 325
298 299 300 302 306 307 315 332 336 338 337 337 335 335 332 333 333 334 336 335 333 331 330 330 330 328 327 326 325 324 324 325
297 299 298 298 301 304 314 329 335 338 338 336 330 331 328 327 331 333 333 334 333 332 331 330 329 329 326 326 325 324 321 323
301 308 309 309 306 303 313 326 335 337 337 334 331 330 328 330 331 332 332 332 332 331 330 329 329 329 327 326 326 325 323 319
308 308 310 312 312 312 325 331 335 336 335 333 331 329 329 326 328 329 329 330 330 329 330 328 328 328 327 327 326 324 324 321
305 307 308 309 314 317 319 334 334 334 334 332 330 328 326 326 327 327 327 328 329 329 328 328 328 328 327 326 326 324 323 321
300 301 303 304 306 315 312 333 333 333 332 331 329 327 326 325 325 325 325 325 326 327 327 326 327 327 326 326 325 324 323 322
297 299 301 301 303 305 316 324 331 330 329 328 328 327 326 326 325 323 324 324 323 325 326 326 326 326 326 326 325 324 324 323
293 296 297 298 299 301 304 317 321 327 326 326 325 325 325 325 323 324 324 323 322 324 324 324 325 326 325 325 324 323 323 323
291 293 293 295 297 298 301 305 311 320 323 325 326 325 323 323 323 323 322 320 321 321 322 323 324 324 324 324 323 324 323 322
288 290 291 293 294 295 297 300 303 309 319 320 322 321 322 321 322 320 319 317 316 318 320 321 322 322 323 323 323 323 322 321
286 287 289 289 290 292 295 298 297 302 314 318 320 322 322 320 319 319 318 315 316 317 315 317 318 319 322 321 321 321 321 320
284 285 286 287 288 289 291 294 295 299 304 318 320 320 320 320 319 318 316 317 317 316 317 316 316 317 319 320 321 320 320 320
283 283 284 285 287 288 289 291 294 296 302 319 319 319 320 319 319 317 316 316 317 316 316 316 315 314 315 319 320 320 320 320
282 282 283 284 285 286 288 289 292 295 296 300 308 319 320 319 318 317 317 317 317 316 315 315 314 309 303 306 319 319 318 318
281 281 282 283 284 285 287 288 289 291 292 292 296 303 317 317 318 318 315 310 312 312 311 309 303 299 291 293 306 315 316 316
279 280 281 283 283 284 284 286 288 288 288 289 290 293 297 299 300 298 297 296 296 294 295 295 293 293 291 293 296 308 302 304
278 279 280 283 283 283 284 284 285 286 286 286 288 289 289 291 291 290 289 289 289 289 289 289 290 290 290 291 291 293 291 290

GFSFLT1_sfc_thetae_105.txt.gz
Theta_e
301 302 302 302 304 305 310 334 338 339 338 336 335 334 335 335 335 335 334 335 332 331 329 329 329 328 328 327 325 325 324 324
299 300 300 300 301 303 308 324 336 337 337 335 333 332 334 333 335 335 333 334 332 331 330 329 329 327 327 328 326 324 323 324
297 297 297 297 298 302 306 322 333 336 337 337 335 334 334 334 334 334 334 333 332 332 331 329 329 328 327 327 326 324 324 324
295 296 295 297 297 297 304 318 328 335 337 336 329 328 329 330 331 333 334 333 332 331 331 330 330 329 327 327 326 324 321 324
303 307 308 307 309 310 304 311 327 333 336 334 331 330 329 331 332 333 334 334 333 332 330 330 330 329 328 327 327 325 324 320
301 303 305 306 308 312 313 308 323 331 335 335 332 329 330 328 330 330 331 332 331 332 330 329 329 329 328 327 326 325 325 323
299 302 303 304 305 306 313 321 325 332 334 334 331 330 328 327 328 329 329 329 330 330 330 330 329 328 327 327 327 325 324 324
296 297 298 300 300 302 307 320 329 332 333 333 332 330 327 327 327 328 328 327 327 328 329 328 328 328 328 327 326 325 324 323
292 295 296 296 298 299 301 306 311 333 333 332 332 328 327 327 327 328 326 326 328 328 328 328 328 327 327 327 326 326 325 324
288 290 293 294 295 296 299 301 305 310 330 331 329 326 324 324 324 325 326 324 323 324 327 326 326 326 326 325 325 323 324 324
286 288 290 292 294 295 296 300 301 305 317 327 325 324 324 322 322 321 321 320 322 322 322 323 323 324 325 325 324 323 323 323
284 286 288 289 292 293 294 296 298 301 305 316 323 322 321 321 321 319 321 321 321 321 321 321 321 323 323 323 323 323 322 322
284 285 286 287 288 290 292 294 296 299 302 308 320 320 321 320 319 319 319 318 318 319 318 318 319 319 321 321 321 322 321 321
283 283 284 285 286 288 289 291 294 297 300 307 319 319 319 318 318 318 317 317 316 315 316 316 316 316 316 317 318 320 321 320
281 281 283 284 285 286 287 289 291 294 296 298 302 313 319 318 318 317 317 317 314 315 316 316 315 314 314 314 316 318 319 320
280 280 282 283 283 284 285 287 289 291 293 293 295 302 317 319 317 317 316 316 317 316 316 315 313 309 301 298 304 316 319 318
279 280 281 282 282 282 283 284 286 288 288 289 292 293 296 298 309 314 310 306 306 305 303 304 300 299 290 291 296 311 316 318
278 279 280 281 282 282 281 282 284 285 285 287 288 289 289 290 292 294 294 295 294 293 293 294 292 291 290 292 294 302 300 297
278 278 279 281 282 281 282 282 282 282 282 283 286 287 286 287 286 286 287 288 288 288 288 289 289 289 289 290 290 293 291 290

GFSFLT1_sfc_thetae_108.txt.gz
Theta_e
298 299 298 300 301 301 303 316 334 335 335 334 334 333 333 334 334 334 335 335 335 334 332 331 330 328 327 326 324 326 325 325
296 296 296 297 297 299 301 303 318 334 335 333 333 331 332 333 334 334 335 335 334 333 331 330 329 328 327 326 326 324 322 324
305 303 295 294 295 297 299 301 305 331 333 335 334 334 334 335 334 334 334 334 334 333 331 330 328 328 327 327 326 323 323 323
301 303 304 306 305 306 304 300 306 326 332 335 333 333 332 331 331 332 333 334 333 333 332 330 329 328 327 327 327 325 322 323
299 300 301 303 303 305 307 312 306 325 333 334 332 330 328 330 331 332 333 333 333 333 332 331 329 329 328 327 328 326 324 321
296 298 299 301 303 302 303 307 312 317 331 332 332 330 330 330 332 331 331 332 333 332 332 331 330 330 329 328 327 326 325 323
294 295 297 297 299 300 301 307 314 314 330 332 331 329 328 327 330 329 329 332 331 332 331 330 330 330 329 328 327 326 325 324
290 290 291 294 296 297 299 303 309 322 328 331 331 329 328 327 328 329 328 328 329 330 330 329 329 330 329 328 326 326 325 324
287 288 290 291 293 295 296 300 303 308 326 331 332 329 327 327 328 329 329 327 329 329 329 329 329 329 328 328 327 326 326 325
286 287 288 289 291 294 296 297 300 304 308 328 330 329 327 326 327 327 329 327 325 325 327 328 328 328 327 326 326 325 325 325
284 285 286 287 289 292 296 296 298 301 305 310 327 326 325 324 324 324 325 325 324 325 325 326 325 326 326 325 325 325 324 324
282 284 285 285 288 290 291 294 295 298 301 306 320 324 324 324 323 323 323 321 321 322 323 323 322 323 323 323 324 323 322 322
282 283 284 284 286 288 288 292 294 296 300 306 320 321 322 321 321 320 320 320 320 319 320 320 320 320 321 321 321 322 322 321
281 281 282 283 284 285 286 288 290 295 297 300 304 309 320 319 319 319 319 319 319 318 318 318 318 317 317 317 317 317 319 321
279 280 281 282 283 283 285 285 288 291 293 295 296 298 308 318 318 318 318 318 316 316 316 315 315 314 314 312 310 312 315 317
278 279 280 281 281 282 282 284 285 288 290 290 291 293 296 300 310 316 316 315 316 316 316 315 311 306 298 297 303 305 310 313
278 278 279 280 280 281 281 282 283 285 286 288 289 290 290 291 292 294 295 296 297 300 300 301 297 297 290 291 293 308 307 303
277 277 279 280 280 280 279 281 283 283 283 284 286 287 286 287 288 288 288 288 289 289 290 292 291 290 289 291 291 299 297 296
276 277 278 279 281 280 280 280 280 281 281 282 283 284 285 285 285 285 285 286 285 286 286 287 288 288 288 290 290 292 291 289

GFSFLT1_sfc_thetae_111.txt.gz
Theta_e
302 303 304 304 306 309 311 313 320 336 340 341 340 339 340 340 339 338 339 339 337 338 338 335 335 333 331 331 332 333 334 334
302 308 311 308 306 305 306 309 314 326 333 334 333 331 334 337 337 338 338 337 336 337 338 333 334 332 330 329 330 329 328 330
306 307 308 309 311 312 314 313 309 312 329 335 335 334 334 337 336 336 336 336 336 335 335 333 332 332 330 329 328 326 327 328
302 303 304 305 307 308 309 312 315 316 315 331 337 338 338 333 333 334 334 335 335 334 334 333 332 332 329 329 329 327 324 325
296 298 299 301 303 305 307 308 310 315 319 321 333 331 329 331 333 334 334 334 335 334 333 333 331 331 331 330 330 329 328 323
291 292 294 296 298 299 301 304 308 314 318 322 333 333 334 335 336 336 334 333 334 333 333 332 331 332 332 330 330 329 330 327
288 291 291 292 294 296 298 300 304 312 320 321 332 334 333 333 335 332 332 333 332 333 332 332 332 331 331 330 330 330 328 327
286 287 288 290 291 292 295 298 299 305 312 320 332 335 336 335 334 334 331 330 330 330 332 331 331 331 331 331 330 329 328 327
285 286 287 287 289 292 292 297 297 302 307 316 330 331 331 334 335 335 334 333 331 332 331 331 331 331 331 331 330 329 329 327
284 285 286 287 287 288 292 294 297 299 303 308 326 331 331 332 334 336 336 335 332 332 332 330 330 330 329 330 330 327 327 327
283 283 284 286 287 288 290 293 295 298 301 305 311 331 330 331 333 333 334 334 331 330 330 329 329 328 329 328 328 328 326 326
281 282 283 285 286 286 288 289 292 296 298 302 311 326 328 329 329 333 333 331 328 328 329 331 329 326 327 327 327 326 325 325
282 281 282 283 283 284 285 287 288 292 297 300 303 309 324 324 324 324 325 325 327 328 327 325 324 325 325 324 323 323 324 324
280 280 281 281 282 283 283 285 286 289 294 297 298 300 307 321 321 321 322 322 322 322 324 323 322 321 321 321 321 320 321 321
279 279 280 281 281 281 282 283 285 287 291 292 294 294 298 303 315 317 318 319 319 319 319 318 317 315 311 311 313 314 315 317
278 278 279 280 280 280 281 282 284 285 287 288 290 292 292 295 296 298 301 299 300 301 307 304 302 297 293 295 303 308 312 313
277 278 278 279 280 280 280 281 282 284 284 285 287 290 290 289 290 291 293 292 292 292 292 292 291 291 289 290 293 303 309 308
276 277 278 279 280 280 279 280 281 281 282 283 284 286 287 285 287 287 286 287 287 286 287 288 287 287 288 289 290 299 297 295
276 277 278 279 280 281 281 281 280 280 280 281 282 283 284 285 285 284 285 285 284 284 284 285 285 285 287 288 289 291 289 288

GFSFLT1_sfc_thetae_114.txt.gz
Theta_e
305 308 310 313 316 318 317 316 317 320 333 340 340 343 344 344 343 344 346 347 348 347 344 344 342 338 339 341 340 340 339 337
311 312 314 314 316 316 318 319 322 316 317 328 331 336 339 342 343 344 345 347 347 345 342 343 339 337 337 339 338 337 338 339
305 307 309 310 311 313 314 315 317 320 319 317 330 334 336 338 343 345 345 344 345 345 343 340 337 336 335 336 335 332 333 335
301 302 304 305 306 308 309 311 313 315 318 322 319 331 334 335 339 342 344 343 343 345 342 339 337 337 333 333 335 332 328 330
298 298 299 300 301 304 306 308 309 312 316 318 320 320 326 333 335 338 341 344 342 342 341 339 337 336 333 333 335 335 332 326
296 296 296 299 300 300 301 304 305 309 313 316 319 319 330 332 336 337 339 339 338 338 339 339 336 337 334 333 333 334 333 330
295 296 296 297 298 298 298 299 301 303 306 312 317 322 325 330 332 335 337 337 335 335 336 336 336 335 334 333 333 334 333 332
292 292 292 293 293 293 294 294 295 297 301 305 311 320 325 333 332 335 335 333 332 333 334 333 334 335 334 332 332 333 332 330
288 289 290 290 291 291 292 291 291 294 298 302 307 317 327 332 334 334 336 334 333 334 334 334 334 335 334 334 332 331 332 332
287 287 288 289 287 288 288 288 290 292 296 301 305 316 329 333 335 338 337 336 333 334 334 332 332 333 333 332 330 330 331 331
285 285 285 287 286 286 288 287 288 291 295 300 304 313 322 335 333 333 334 338 337 336 334 334 331 331 332 331 330 330 329 330
284 284 284 286 285 284 285 285 287 290 295 300 303 310 330 334 332 333 336 337 336 334 335 332 330 329 330 330 330 329 327 329
283 283 283 283 283 283 283 284 286 289 293 298 299 302 309 329 330 332 334 332 333 332 331 328 327 327 329 328 326 326 327 326
282 282 280 281 282 282 282 283 285 288 291 295 297 297 300 304 319 324 324 324 325 325 326 326 327 326 326 325 324 325 325 325
282 281 280 281 282 281 280 282 284 286 289 289 292 293 295 297 300 303 304 310 316 312 309 302 300 299 300 305 313 317 318 319
280 280 280 281 281 281 281 281 283 284 286 287 289 291 291 292 293 295 297 297 298 298 295 294 294 292 292 295 304 311 313 316
279 280 280 281 282 282 281 281 282 283 283 284 286 287 288 289 288 290 289 291 290 290 289 290 290 291 290 291 296 306 305 302
278 280 280 281 282 283 282 283 282 281 282 282 283 284 285 285 286 285 285 286 287 287 287 287 287 288 289 290 292 294 292 291
278 280 280 280 282 283 285 284 283 281 281 282 283 283 283 284 284 284 284 284 284 284 284 284 284 286 287 288 288 289 288 287

GFSFLT1_sfc_thetae_117.txt.gz
Theta_e
312 314 316 316 317 318 319 320 323 324 321 327 335 340 344 346 346 344 347 350 350 348 345 346 346 346 345 345 343 342 340 339
310 311 312 313 314 314 315 317 320 321 322 317 323 335 339 343 344 347 345 348 351 349 347 347 346 342 342 344 343 341 338 341
306 307 308 309 310 311 312 313 315 317 318 321 320 324 333 340 344 345 348 348 349 349 348 347 347 342 338 339 339 339 341 342
303 304 304 306 306 308 308 309 311 313 316 317 319 324 323 334 339 340 344 347 349 349 349 348 346 344 340 337 337 335 332 339
301 301 302 303 303 306 307 307 307 309 313 313 315 316 318 326 336 339 340 345 347 349 349 348 347 344 340 336 336 335 333 329
298 298 299 300 301 302 303 303 304 307 309 310 311 315 319 323 325 338 339 343 344 347 348 347 345 343 341 339 335 334 334 331
296 297 296 296 298 299 299 300 301 303 304 306 306 310 315 318 324 329 334 338 341 345 344 344 342 340 340 340 337 334 334 332
293 292 292 292 293 294 294 295 296 298 300 302 302 305 310 315 319 325 333 335 337 340 341 338 340 340 338 339 334 333 333 331
289 289 289 289 289 290 290 290 292 294 295 297 299 301 305 312 319 325 326 335 338 341 340 337 336 340 337 336 334 333 333 332
287 288 287 287 287 287 288 287 289 291 291 293 294 299 303 308 318 328 330 335 339 340 339 334 334 334 336 334 332 331 333 333
286 285 285 286 286 287 288 286 287 288 290 292 295 298 303 308 320 328 333 336 339 337 337 333 332 333 333 333 332 331 330 331
285 285 285 284 286 285 285 285 285 287 289 292 294 300 303 309 322 331 335 336 335 335 336 332 331 331 331 331 330 329 329 330
286 285 284 284 284 284 283 284 284 286 287 291 296 297 301 304 316 330 334 333 334 335 335 334 333 330 329 329 328 328 328 326
284 284 284 283 284 284 283 283 283 285 287 289 293 293 295 295 299 303 307 324 325 319 323 317 320 323 326 326 327 327 328 327
283 283 283 285 284 284 283 283 283 284 286 287 289 290 291 293 294 294 298 300 299 299 297 297 296 296 300 307 321 322 322 322
281 282 282 284 284 285 285 283 283 284 284 285 286 288 289 289 290 290 291 292 292 295 297 295 294 294 294 296 310 314 315 315
280 281 282 282 283 285 286 284 284 284 284 284 285 286 286 287 286 287 288 288 287 288 289 290 292 292 292 293 300 302 300 298
279 280 281 281 283 285 286 286 285 283 283 284 284 284 284 284 285 285 284 284 285 285 285 286 285 286 289 290 290 291 290 288
278 280 280 281 284 283 285 286 285 283 283 283 284 284 284 284 284 284 283 283 283 283 283 283 283 284 286 286 287 286 285 285

GFSFLT1_sfc_thetae_120.txt.gz
Theta_e
310 309 310 311 312 313 314 315 317 319 320 323 321 322 340 342 342 341 344 345 343 342 344 341 341 341 340 340 339 338 338 336
308 308 308 308 308 309 310 311 313 314 314 316 318 318 324 338 341 342 342 342 343 342 342 342 340 338 339 340 338 336 336 336
304 305 306 306 306 306 306 308 309 310 311 313 314 315 318 321 336 341 342 342 343 343 342 340 340 337 337 340 339 335 335 336
300 301 302 302 302 302 303 305 306 307 308 309 312 314 316 317 320 328 340 341 341 344 342 340 340 339 337 338 337 336 332 334
299 298 298 298 299 300 301 301 302 303 306 306 307 308 309 314 317 322 335 340 341 342 343 342 341 341 338 337 337 335 334 331
296 295 295 296 296 296 297 298 297 299 301 303 303 304 307 312 315 318 322 329 337 340 339 341 341 340 340 337 335 334 335 332
294 294 293 292 293 292 293 293 294 295 296 298 299 300 301 304 308 312 316 323 331 336 337 338 340 339 336 337 334 334 333 332
290 289 289 289 289 289 290 290 289 291 292 294 296 297 298 300 302 307 312 316 323 330 334 336 339 339 337 337 334 333 333 331
288 287 287 287 287 287 287 287 287 288 290 291 293 294 296 298 300 304 309 315 320 327 331 333 337 337 338 337 336 334 333 331
286 286 286 286 285 286 286 286 286 287 288 289 291 293 294 296 299 303 306 312 319 323 330 331 334 336 337 336 334 333 332 331
286 286 286 286 286 286 286 286 285 286 287 289 290 293 295 297 299 302 305 309 317 324 327 329 329 332 333 332 332 331 330 329
285 285 286 286 286 286 286 285 285 285 286 289 291 295 297 300 302 305 306 310 315 323 323 323 319 328 329 330 331 330 329 329
285 284 284 284 285 285 285 285 284 285 286 289 291 292 294 295 297 301 308 313 318 324 326 326 322 328 329 330 329 328 328 327
283 283 283 283 284 285 285 284 284 284 285 287 288 289 290 290 292 294 296 297 300 301 301 304 306 309 325 329 329 327 327 327
281 282 282 283 284 285 285 284 284 284 285 285 286 286 288 289 290 289 290 292 291 295 298 297 298 299 301 305 326 326 326 325
280 281 281 282 283 284 285 284 284 284 284 284 284 286 287 287 287 288 288 287 287 289 289 292 293 295 297 301 303 302 305 304
279 280 280 281 282 283 285 284 283 284 283 283 284 285 285 286 285 285 286 286 286 287 287 287 287 290 291 293 292 291 291 291
278 279 279 280 281 282 283 283 283 283 283 283 284 284 284 284 285 284 284 284 285 284 285 285 286 286 287 288 290 289 289 287
277 278 278 279 281 280 282 282 282 282 282 282 282 283 283 284 284 284 284 284 283 282 282 283 283 284 285 285 285 284 283 283

GFSFLT1_sfc_thetae_123.txt.gz
Theta_e
303 303 303 302 303 303 303 305 307 307 308 309 311 313 315 320 332 337 338 340 342 341 339 336 338 336 336 337 335 336 335 333
300 300 299 299 299 299 300 301 303 304 304 304 305 306 309 312 317 322 337 338 340 339 340 336 336 336 336 335 335 334 333 334
298 297 296 296 296 296 297 297 298 299 301 302 303 304 307 310 314 317 320 329 338 339 337 337 339 336 334 335 335 333 333 334
293 293 292 292 292 292 293 293 294 295 297 298 300 303 304 306 309 312 316 322 332 337 337 337 337 337 333 335 336 334 330 332
291 290 290 289 289 290 290 291 291 293 294 293 293 295 297 302 304 308 310 315 320 329 337 337 336 337 336 332 337 336 332 329
289 288 288 288 288 288 288 289 290 290 290 291 291 291 296 299 301 301 304 309 315 321 328 335 337 336 337 335 333 335 333 331
287 287 287 286 286 286 286 287 287 288 289 289 289 289 292 294 296 297 299 303 308 315 321 328 334 336 335 336 336 335 334 331
285 285 285 284 284 285 286 286 286 287 287 287 288 289 291 292 293 296 297 300 303 309 317 321 329 332 335 336 334 333 331 329
285 284 284 284 285 285 285 286 286 286 286 286 287 289 290 291 293 295 296 298 301 305 309 315 324 329 331 333 333 330 325 326
283 283 283 284 284 285 286 286 285 286 286 287 288 289 290 291 293 295 296 299 301 303 307 312 318 325 328 329 331 330 329 327
282 282 283 284 285 286 287 286 285 285 286 287 289 291 293 294 296 296 297 299 301 302 304 307 314 321 326 326 327 329 329 329
281 281 283 284 285 285 286 285 285 285 286 287 289 290 292 293 294 297 298 301 302 305 305 308 313 320 323 321 324 326 327 329
281 281 282 282 284 284 284 284 284 285 286 287 287 289 290 291 291 293 295 297 303 307 309 310 315 313 315 315 316 319 313 326
281 281 281 281 283 283 284 284 283 284 285 286 286 287 287 288 289 290 291 292 293 295 296 296 297 299 301 306 312 316 324 327
280 280 280 281 282 282 283 283 283 284 284 285 285 285 286 286 287 287 288 289 289 288 290 290 290 291 294 299 310 322 323 323
278 278 278 279 280 280 282 282 282 283 283 282 283 284 286 286 286 286 286 286 287 287 286 287 288 288 289 291 295 297 298 299
277 278 277 278 279 278 280 280 281 282 281 280 282 283 284 285 285 284 284 284 284 284 285 285 284 285 287 287 287 287 289 290
276 276 276 277 278 278 278 279 280 280 279 280 279 281 281 282 284 284 282 282 282 281 283 283 283 284 286 286 286 284 284 285
275 276 276 277 278 278 278 279 279 279 277 278 279 278 278 280 281 281 283 281 280 280 280 281 282 284 286 285 285 284 283 283

GFSFLT1_sfc_thetae_126.txt.gz
Theta_e
296 295 295 295 295 295 296 297 296 298 299 301 302 303 305 307 309 314 317 320 325 335 338 336 335 336 335 337 335 336 334 333
294 293 292 292 291 291 292 292 293 294 295 294 296 297 300 303 306 309 314 319 321 323 335 329 334 336 336 335 335 333 333 333
291 290 289 289 289 289 290 290 290 291 292 293 294 295 298 300 303 306 309 312 314 317 320 333 330 334 334 332 332 332 333 332
287 287 287 287 287 286 288 288 288 290 291 290 291 292 293 295 298 300 304 306 307 311 314 319 331 327 326 332 333 332 328 332
286 286 286 285 285 286 287 287 287 289 289 288 288 287 287 290 293 297 299 302 304 307 311 316 321 330 329 331 334 333 331 327
284 285 285 285 285 285 285 286 287 287 288 287 287 286 288 289 291 293 295 298 300 303 307 311 316 323 330 331 332 331 332 330
285 285 285 284 285 285 286 286 286 287 286 286 286 285 285 286 288 289 292 295 297 300 304 309 316 319 321 329 331 332 331 331
283 282 282 283 284 285 286 286 286 286 286 286 286 286 286 286 287 289 290 292 294 297 301 303 308 312 318 324 329 330 331 330
282 282 282 283 284 285 286 286 285 285 285 286 287 288 289 289 290 291 292 293 295 297 298 300 302 307 310 315 325 328 329 329
281 281 283 283 283 284 286 285 285 285 285 287 287 289 290 291 292 293 293 295 297 298 299 300 302 305 309 313 321 325 324 323
280 281 282 282 284 284 286 285 284 285 286 287 288 289 290 291 293 294 296 298 299 300 300 301 303 304 305 310 316 323 322 320
279 280 280 281 283 283 284 283 283 284 285 286 287 288 289 290 290 291 292 294 296 300 303 303 304 305 306 309 315 321 321 322
279 279 279 280 280 281 282 282 282 283 285 285 286 288 287 287 288 289 291 290 292 292 294 295 298 299 304 307 310 319 320 319
279 279 279 279 279 279 280 281 281 282 283 283 284 285 286 286 286 287 288 289 289 289 290 291 291 292 297 302 305 311 312 312
278 278 278 278 279 278 279 280 281 280 282 281 281 282 285 285 285 285 285 286 286 287 287 288 289 289 290 292 294 296 296 295
277 276 277 277 278 278 279 280 280 279 280 279 279 281 283 284 284 283 283 283 284 285 286 286 287 287 287 289 289 289 289 290
276 276 276 277 278 278 279 279 279 279 278 277 278 279 280 281 282 282 281 281 281 281 283 284 284 285 287 287 287 287 286 286
275 275 276 276 277 278 277 278 279 277 277 277 276 277 277 279 279 279 279 278 278 279 279 281 283 284 286 286 285 284 284 284
275 275 276 276 277 278 278 279 279 278 277 276 276 275 274 276 277 276 276 276 276 276 278 279 281 284 285 285 285 284 283 283

GFSFLT1_sfc_thetae_129.txt.gz
Theta_e
290 290 290 289 289 290 290 290 291 291 293 293 295 298 298 300 303 305 309 313 318 321 323 323 328 328 334 336 335 335 333 332
289 289 288 288 288 287 288 288 288 289 290 289 290 291 291 296 297 301 306 309 312 314 318 319 317 327 329 332 334 334 332 332
287 287 286 286 286 286 287 286 287 288 288 288 289 289 291 292 295 298 300 304 305 305 307 312 316 323 327 328 331 330 332 332
285 285 284 284 284 285 286 286 286 287 288 288 287 288 289 290 290 291 295 297 300 304 305 308 313 318 324 324 327 329 326 330
285 284 283 283 284 285 286 286 286 288 288 286 285 284 284 286 287 289 291 294 297 300 302 303 307 312 316 324 326 324 326 325
283 283 283 284 284 285 286 288 287 287 286 286 285 284 285 286 287 287 289 291 294 296 300 302 304 309 315 320 324 322 323 326
283 283 283 283 284 285 286 287 285 287 286 286 286 285 285 286 287 287 288 290 292 294 296 298 302 307 312 319 321 325 325 327
281 280 282 283 283 284 285 285 284 285 285 286 286 286 287 288 288 289 290 291 293 294 295 297 298 301 304 305 308 317 324 326
280 280 282 282 283 283 284 284 284 285 285 286 287 288 288 289 291 292 292 292 293 295 296 297 297 299 300 303 306 309 316 324
279 281 281 282 283 282 284 283 283 283 285 285 286 288 288 289 290 292 293 295 296 297 298 299 299 300 301 303 303 306 314 321
279 280 280 281 281 281 282 282 282 283 284 284 285 286 288 289 289 289 291 293 294 295 297 297 300 301 302 303 303 305 309 315
277 277 279 279 280 280 281 281 281 281 282 283 284 284 287 287 287 288 289 290 290 291 293 294 300 302 305 305 305 306 308 315
277 276 275 277 279 279 280 280 280 280 282 282 282 283 286 285 285 286 287 288 289 289 290 291 291 294 298 302 307 310 312 315
276 276 275 276 278 278 279 279 279 279 280 280 280 281 283 283 283 284 284 285 286 287 287 288 288 289 291 295 298 301 298 298
275 275 277 277 278 278 278 279 278 278 279 278 278 278 280 282 282 281 282 283 283 285 286 286 287 287 288 290 291 292 292 293
276 276 276 277 278 278 278 279 278 277 277 276 276 277 279 279 280 279 280 280 281 282 284 285 285 286 286 286 287 287 288 288
276 276 276 276 277 277 278 278 278 278 276 275 275 276 276 277 277 277 277 278 278 280 281 282 283 284 286 286 285 284 284 284
275 275 276 276 276 278 277 278 278 277 276 275 274 274 273 274 275 275 275 275 277 278 279 281 281 283 285 285 284 283 282 282
275 275 276 276 277 277 278 278 277 276 276 275 275 274 272 272 273 273 273 274 275 276 277 278 280 282 284 284 283 281 281 281